MB7UIK Weather Reports


time (UTC)temp
C
wind
direction
speed
KPH
gust
KPH
rain 1hr
cm
rain 24hr
cm
rain mn
cm
humidity
%
barometer
mb
20260507193313 12 82 1.6 3.2 0.00 0.00 0.00 100 1015.6
20260507193212 12 82 0.0 3.2 0.00 0.00 0.00 100 1015.5
20260507193113 12 78 1.6 3.2 0.00 0.00 0.00 100 1015.6
20260507193013 12 78 0.0 3.2 0.00 0.00 0.00 100 1015.6
20260507192913 12 78 1.6 3.2 0.00 0.00 0.00 100 1015.6
20260507192813 12 77 0.0 3.2 0.00 0.00 0.00 100 1015.6
20260507192713 12 77 1.6 3.2 0.00 0.00 0.00 100 1015.6
20260507192613 12 77 0.0 3.2 0.00 0.00 0.00 100 1015.6
20260507192513 12 77 0.0 3.2 0.00 0.00 0.00 100 1015.6
20260507192413 12 77 1.6 3.2 0.00 0.00 0.00 100 1015.6
20260507192313 12 55 1.6 1.6 0.00 0.00 0.00 100 1015.6
20260507192212 12 55 0.0 3.2 0.00 0.00 0.00 100 1015.6
20260507192112 12 55 3.2 3.2 0.00 0.00 0.00 100 1015.6
20260507192012 12 55 1.6 3.2 0.00 0.00 0.00 100 1015.6
20260507191912 12 59 0.0 3.2 0.00 0.00 0.00 100 1015.5
20260507191811 12 59 1.6 3.2 0.00 0.00 0.00 100 1015.6
20260507191712 12 30 1.6 3.2 0.00 0.00 0.00 100 1015.5
20260507191612 12 39 0.0 3.2 0.00 0.00 0.00 100 1015.6
20260507191512 12 33 1.6 3.2 0.00 0.00 0.00 100 1015.6
20260507191412 12 36 1.6 3.2 0.00 0.00 0.00 100 1015.5
20260507191313 12 40 0.0 3.2 0.00 0.00 0.00 100 1015.6
20260507191213 12 40 1.6 3.2 0.00 0.00 0.00 100 1015.6
20260507191113 12 40 0.0 3.2 0.00 0.00 0.00 100 1015.6
20260507191013 12 40 0.0 3.2 0.00 0.00 0.00 100 1015.6
20260507190913 12 40 0.0 3.2 0.00 0.00 0.00 100 1015.5
20260507190812 12 40 1.6 3.2 0.00 0.00 0.00 100 1015.5
20260507190712 12 40 1.6 3.2 0.00 0.00 0.00 100 1015.5
20260507190612 12 38 3.2 3.2 0.00 0.00 0.00 100 1015.5
20260507190512 12 38 0.0 1.6 0.00 0.00 0.00 100 1015.5
20260507190412 12 38 0.0 1.6 0.00 0.00 0.00 100 1015.4
20260507190313 13 38 0.0 1.6 0.00 0.00 0.00 100 1015.5
20260507190213 13 38 1.6 4.8 0.00 0.00 0.00 100 1015.5
20260507190113 13 39 3.2 4.8 0.00 0.00 0.00 100 1015.5
20260507190013 13 59 1.6 4.8 0.00 0.00 0.00 100 1015.5
20260507185913 13 34 1.6 4.8 0.00 0.00 0.00 100 1015.5
20260507185812 13 22 1.6 4.8 0.00 0.00 0.00 100 1015.5
20260507185712 13 40 3.2 4.8 0.00 0.00 0.00 100 1015.4
20260507185612 13 40 1.6 3.2 0.00 0.00 0.00 100 1015.4
20260507185512 13 40 1.6 3.2 0.00 0.00 0.00 100 1015.4
20260507185412 13 40 0.0 3.2 0.00 0.00 0.00 100 1015.4
20260507185312 13 40 1.6 3.2 0.00 0.00 0.00 100 1015.4
20260507185212 13 44 3.2 4.8 0.00 0.00 0.00 100 1015.4
20260507185113 13 45 1.6 4.8 0.00 0.00 0.00 100 1015.4
20260507185013 13 48 3.2 4.8 0.00 0.00 0.00 100 1015.4
20260507184913 13 28 1.6 4.8 0.00 0.00 0.00 100 1015.4
20260507184813 13 42 4.8 4.8 0.00 0.00 0.00 100 1015.4
20260507184713 13 39 1.6 3.2 0.00 0.00 0.00 100 1015.4
20260507184612 13 71 0.0 3.2 0.00 0.00 0.00 100 1015.4
20260507184513 13 71 3.2 3.2 0.00 0.00 0.00 100 1015.4
20260507184413 13 72 1.6 3.2 0.00 0.00 0.00 100 1015.4
20260507184313 13 72 1.6 3.2 0.00 0.00 0.00 100 1015.4
20260507184213 13 72 1.6 4.8 0.00 0.00 0.00 100 1015.4
20260507184113 13 51 1.6 4.8 0.00 0.00 0.00 100 1015.3
20260507184013 13 51 1.6 4.8 0.00 0.00 0.00 100 1015.4
20260507183911 13 43 3.2 4.8 0.00 0.00 0.00 100 1015.4
20260507183811 13 46 3.2 4.8 0.00 0.00 0.00 100 1015.4
20260507183713 13 62 0.0 4.8 0.00 0.00 0.00 100 1015.4
20260507183613 13 80 3.2 3.2 0.00 0.00 0.00 100 1015.4
20260507183513 13 84 0.0 3.2 0.00 0.00 0.00 100 1015.4
20260507183413 13 87 3.2 3.2 0.00 0.00 0.00 100 1015.4
20260507183313 13 90 3.2 3.2 0.00 0.00 0.00 100 1015.4
20260507183213 13 42 3.2 4.8 0.00 0.00 0.00 100 1015.4
20260507183112 13 60 1.6 4.8 0.00 0.00 0.00 100 1015.4
20260507183012 13 60 0.0 4.8 0.00 0.00 0.00 100 1015.4
20260507182913 13 70 1.6 4.8 0.00 0.00 0.00 100 1015.4
20260507182813 13 63 3.2 4.8 0.00 0.00 0.00 100 1015.4
20260507182713 13 80 1.6 4.8 0.00 0.00 0.00 100 1015.4
20260507182613 13 60 0.0 4.8 0.00 0.00 0.00 100 1015.3
20260507182512 13 65 4.8 4.8 0.00 0.00 0.00 100 1015.4
20260507182412 13 74 0.0 4.8 0.00 0.00 0.00 100 1015.4
20260507182312 13 87 3.2 4.8 0.00 0.00 0.00 100 1015.4
20260507182212 13 94 3.2 4.8 0.00 0.00 0.00 100 1015.3
20260507182112 13 45 3.2 4.8 0.00 0.00 0.00 100 1015.4
20260507182013 13 76 1.6 4.8 0.00 0.00 0.00 100 1015.3
20260507181913 13 78 3.2 4.8 0.00 0.00 0.00 100 1015.3
20260507181813 13 83 4.8 4.8 0.00 0.00 0.00 100 1015.3
20260507181712 13 57 3.2 4.8 0.00 0.00 0.00 100 1015.4
20260507181612 13 58 1.6 4.8 0.00 0.00 0.00 100 1015.3
20260507181512 13 32 3.2 4.8 0.00 0.00 0.00 100 1015.4
20260507181412 13 77 1.6 4.8 0.00 0.00 0.00 100 1015.3
20260507181312 13 80 1.6 4.8 0.00 0.00 0.00 100 1015.4
20260507181212 13 47 1.6 4.8 0.00 0.00 0.00 100 1015.4
20260507181113 13 78 4.8 4.8 0.00 0.00 0.00 100 1015.4
20260507181013 13 71 0.0 3.2 0.00 0.00 0.00 100 1015.4
20260507180913 13 44 3.2 3.2 0.00 0.00 0.00 100 1015.4
20260507180813 13 49 0.0 1.6 0.00 0.00 0.00 100 1015.3
20260507180712 13 49 3.2 4.8 0.00 0.00 0.00 100 1015.4
20260507180612 13 68 1.6 4.8 0.00 0.00 0.00 100 1015.4
20260507180512 13 71 3.2 4.8 0.00 0.00 0.00 100 1015.4
20260507180412 13 79 4.8 4.8 0.00 0.00 0.00 100 1015.3
20260507180311 13 59 0.0 3.2 0.00 0.00 0.00 100 1015.3
20260507180211 13 81 4.8 4.8 0.00 0.00 0.00 100 1015.3
20260507180113 13 72 1.6 4.8 0.00 0.00 0.00 100 1015.4
20260507180013 13 79 3.2 4.8 0.00 0.00 0.00 100 1015.4
20260507175913 13 84 1.6 4.8 0.00 0.00 0.00 100 1015.3
20260507175813 13 80 3.2 3.2 0.00 0.00 0.00 100 1015.3
20260507175712 13 79 3.2 4.8 0.00 0.00 0.00 100 1015.4
20260507175612 13 78 3.2 4.8 0.00 0.00 0.00 100 1015.4
20260507175512 13 78 3.2 4.8 0.00 0.00 0.00 100 1015.4
20260507175412 13 72 1.6 4.8 0.00 0.00 0.00 100 1015.3
20260507175312 13 72 4.8 4.8 0.00 0.00 0.00 100 1015.4
20260507175212 13 83 3.2 6.4 0.00 0.00 0.00 100 1015.4
20260507175112 13 90 6.4 6.4 0.00 0.00 0.00 100 1015.3
20260507175012 13 114 3.2 4.8 0.00 0.00 0.00 100 1015.4
20260507174911 13 82 0.0 4.8 0.00 0.00 0.00 100 1015.4
20260507174813 13 78 3.2 4.8 0.00 0.00 0.00 100 1015.4
20260507174713 13 65 4.8 4.8 0.00 0.00 0.00 100 1015.4
20260507174613 13 65 3.2 4.8 0.00 0.00 0.00 100 1015.4
20260507174513 13 70 1.6 4.8 0.00 0.00 0.00 100 1015.4
20260507174413 13 82 4.8 4.8 0.00 0.00 0.00 100 1015.3
20260507174313 13 74 4.8 4.8 0.00 0.00 0.00 100 1015.3
20260507174213 13 74 3.2 8.0 0.00 0.00 0.00 100 1015.3
20260507174112 13 55 4.8 8.0 0.00 0.00 0.00 100 1015.3
20260507174012 13 68 4.8 4.8 0.00 0.00 0.00 100 1015.3
20260507173912 13 63 0.0 3.2 0.00 0.00 0.00 100 1015.3
20260507173812 13 86 3.2 3.2 0.00 0.00 0.00 100 1015.3
20260507173712 13 89 3.2 6.4 0.00 0.00 0.00 100 1015.3
20260507173611 13 35 4.8 6.4 0.00 0.00 0.00 100 1015.3
20260507173511 13 82 1.6 6.4 0.00 0.00 0.00 100 1015.3
20260507173413 13 59 4.8 4.8 0.00 0.00 0.00 100 1015.3
20260507173313 13 75 1.6 3.2 0.00 0.00 0.00 100 1015.3
20260507173213 13 75 3.2 6.4 0.00 0.00 0.00 100 1015.3
20260507173113 13 70 3.2 6.4 0.00 0.00 0.00 100 1015.3
20260507173012 13 76 4.8 6.4 0.00 0.00 0.00 100 1015.3
20260507172912 13 80 4.8 6.4 0.00 0.00 0.00 100 1015.4
20260507172812 13 70 4.8 6.4 0.00 0.00 0.00 100 1015.4
20260507172712 13 71 4.8 4.8 0.00 0.00 0.00 100 1015.4
20260507172612 13 5 1.6 4.8 0.00 0.00 0.00 100 1015.4
20260507172513 13 41 3.2 4.8 0.00 0.00 0.00 100 1015.4
20260507172413 13 49 1.6 4.8 0.00 0.00 0.00 100 1015.4
20260507172313 13 77 3.2 3.2 0.00 0.00 0.00 100 1015.4
20260507172213 13 67 3.2 4.8 0.00 0.00 0.00 100 1015.4
20260507172113 13 32 1.6 4.8 0.00 0.00 0.00 100 1015.4
20260507172013 13 40 3.2 3.2 0.00 0.00 0.00 100 1015.4
20260507171913 13 43 0.0 1.6 0.00 0.00 0.00 100 1015.4
20260507171813 13 43 0.0 1.6 0.00 0.00 0.00 100 1015.4
20260507171712 13 43 3.2 4.8 0.00 0.00 0.00 100 1015.4
20260507171612 13 43 1.6 4.8 0.00 0.00 0.00 100 1015.4
20260507171512 13 49 3.2 4.8 0.00 0.00 0.00 100 1015.4
20260507171412 13 29 3.2 4.8 0.00 0.00 0.00 100 1015.4
20260507171312 13 39 3.2 4.8 0.00 0.00 0.00 100 1015.4
20260507171212 13 27 3.2 4.8 0.00 0.00 0.00 100 1015.4
20260507171112 13 44 1.6 4.8 0.00 0.00 0.00 100 1015.5
20260507171012 13 44 1.6 4.8 0.00 0.00 0.00 100 1015.5
20260507170913 13 55 4.8 4.8 0.00 0.00 0.00 100 1015.4
20260507170813 13 48 1.6 1.6 0.00 0.00 0.00 100 1015.5
20260507170713 13 46 0.0 3.2 0.00 0.00 0.00 100 1015.5
20260507170612 13 46 0.0 3.2 0.00 0.00 0.00 100 1015.5
20260507170512 13 46 0.0 3.2 0.00 0.00 0.00 100 1015.4
20260507170412 13 46 0.0 3.2 0.00 0.00 0.00 100 1015.4
20260507170312 13 47 1.6 3.2 0.00 0.00 0.00 100 1015.4
20260507170212 13 360 1.6 4.8 0.00 0.00 0.00 100 1015.4
20260507170112 13 38 0.0 4.8 0.00 0.00 0.00 100 1015.4
20260507170012 13 37 0.0 4.8 0.00 0.00 0.00 100 1015.4
20260507165912 13 40 0.0 4.8 0.00 0.00 0.00 100 1015.4
20260507165811 13 40 1.6 4.8 0.00 0.00 0.00 100 1015.4
20260507165713 13 24 3.2 3.2 0.00 0.00 0.00 100 1015.3
20260507165613 13 34 0.0 3.2 0.00 0.00 0.00 100 1015.4
20260507165512 13 34 0.0 3.2 0.00 0.00 0.00 100 1015.4
20260507165412 13 34 0.0 3.2 0.00 0.00 0.00 100 1015.4
20260507165312 13 34 0.0 3.2 0.00 0.00 0.00 100 1015.4
20260507165213 13 27 1.6 4.8 0.00 0.00 0.00 100 1015.3
20260507165113 13 33 3.2 4.8 0.00 0.00 0.00 100 1015.3
20260507165013 13 38 3.2 4.8 0.00 0.00 0.00 100 1015.4
20260507164912 13 44 1.6 3.2 0.00 0.00 0.00 100 1015.4
20260507164811 13 44 1.6 3.2 0.00 0.00 0.00 100 1015.4
20260507164711 13 44 1.6 4.8 0.00 0.00 0.00 100 1015.4
20260507164613 13 34 3.2 4.8 0.00 0.00 0.00 100 1015.4
20260507164513 13 33 3.2 4.8 0.00 0.00 0.00 100 1015.5
20260507164413 13 37 3.2 3.2 0.00 0.00 0.00 100 1015.4
20260507164312 13 24 0.0 3.2 0.00 0.00 0.00 100 1015.5
20260507164212 13 24 1.6 4.8 0.00 0.00 0.00 100 1015.5
20260507164111 13 26 3.2 4.8 0.00 0.00 0.00 100 1015.5
20260507164013 13 42 1.6 4.8 0.00 0.00 0.00 100 1015.5
20260507163913 13 42 4.8 4.8 0.00 0.00 0.00 100 1015.5
20260507163813 13 36 1.6 4.8 0.00 0.00 0.00 100 1015.4
20260507163713 13 17 1.6 4.8 0.00 0.00 0.00 100 1015.5
20260507163612 13 12 1.6 4.8 0.00 0.00 0.00 100 1015.5
20260507163512 13 29 3.2 4.8 0.00 0.00 0.00 100 1015.5
20260507163411 13 28 4.8 4.8 0.00 0.00 0.00 100 1015.5
20260507163311 13 51 3.2 4.8 0.00 0.00 0.00 100 1015.5
20260507163213 13 38 3.2 3.2 0.00 0.00 0.00 100 1015.5
20260507163113 13 38 1.6 3.2 0.00 0.00 0.00 100 1015.5
20260507163013 13 38 1.6 3.2 0.00 0.00 0.00 100 1015.5
20260507162913 13 44 1.6 3.2 0.00 0.00 0.00 100 1015.5
20260507162813 13 36 3.2 3.2 0.00 0.00 0.00 100 1015.5
20260507162713 13 37 1.6 4.8 0.00 0.00 0.00 100 1015.5
20260507162612 13 39 1.6 4.8 0.00 0.00 0.00 100 1015.5
20260507162512 13 28 3.2 4.8 0.00 0.00 0.00 100 1015.5
20260507162413 13 15 3.2 4.8 0.00 0.00 0.00 100 1015.5
20260507162313 13 23 3.2 4.8 0.00 0.00 0.00 100 1015.5
20260507162213 13 40 1.6 4.8 0.00 0.00 0.00 100 1015.5
20260507162113 13 40 1.6 4.8 0.00 0.00 0.00 100 1015.5
20260507162013 13 24 4.8 4.8 0.00 0.00 0.00 100 1015.5
20260507161912 13 35 1.6 4.8 0.00 0.00 0.00 100 1015.6
20260507161812 13 27 1.6 4.8 0.00 0.00 0.00 100 1015.5
20260507161712 13 5 4.8 4.8 0.00 0.00 0.00 100 1015.5
20260507161613 13 55 0.0 3.2 0.00 0.00 0.00 100 1015.6
20260507161513 13 46 1.6 3.2 0.00 0.00 0.00 100 1015.5
20260507161413 13 46 1.6 3.2 0.00 0.00 0.00 100 1015.5
20260507161313 13 46 1.6 3.2 0.00 0.00 0.00 100 1015.6
20260507161213 13 51 1.6 3.2 0.00 0.00 0.00 100 1015.6
20260507161112 13 51 1.6 1.6 0.00 0.00 0.00 100 1015.5
20260507161012 13 46 0.0 1.6 0.00 0.00 0.00 100 1015.5
20260507160913 13 46 0.0 1.6 0.00 0.00 0.00 100 1015.5
20260507160813 13 46 0.0 0.0 0.00 0.00 0.00 100 1015.5
20260507160713 13 46 0.0 4.8 0.00 0.00 0.00 100 1015.5
20260507160611 13 46 1.6 4.8 0.00 0.00 0.00 100 1015.5
20260507160511 13 44 4.8 4.8 0.00 0.00 0.00 100 1015.5
20260507160411 13 40 4.8 4.8 0.00 0.00 0.00 100 1015.5
20260507160311 13 34 3.2 4.8 0.00 0.00 0.00 100 1015.5
20260507160213 13 33 4.8 4.8 0.00 0.00 0.00 100 1015.5
20260507160113 13 28 1.6 4.8 0.00 0.00 0.00 100 1015.5
20260507160012 13 27 1.6 4.8 0.00 0.00 0.00 100 1015.5
20260507155911 13 34 4.8 4.8 0.00 0.00 0.00 100 1015.5
20260507155811 13 145 0.0 1.6 0.00 0.00 0.00 100 1015.5
20260507155713 13 145 0.0 3.2 0.00 0.00 0.00 100 1015.5
20260507155613 13 145 1.6 3.2 0.00 0.00 0.00 100 1015.5
20260507155513 13 145 0.0 3.2 0.00 0.00 0.00 100 1015.5
20260507155413 13 145 0.0 3.2 0.00 0.00 0.00 100 1015.5
20260507155313 13 145 1.6 3.2 0.00 0.00 0.00 100 1015.5
20260507155213 13 145 3.2 3.2 0.00 0.00 0.00 100 1015.5
20260507155113 13 145 0.0 0.0 0.00 0.00 0.00 100 1015.5
20260507155013 13 145 0.0 0.0 0.00 0.00 0.00 100 1015.5
20260507154912 13 145 0.0 0.0 0.00 0.00 0.00 100 1015.5
20260507154812 13 145 0.0 0.0 0.00 0.00 0.00 100 1015.5
20260507154713 13 145 0.0 1.6 0.00 0.00 0.00 100 1015.5
20260507154613 13 145 0.0 1.6 0.00 0.00 0.00 100 1015.5
20260507154513 13 145 0.0 1.6 0.00 0.00 0.00 100 1015.5
20260507154412 13 145 0.0 1.6 0.00 0.00 0.00 100 1015.5
20260507154312 13 145 1.6 1.6 0.00 0.00 0.00 100 1015.5
20260507154212 13 145 0.0 1.6 0.00 0.00 0.00 100 1015.5
20260507154112 13 145 0.0 1.6 0.00 0.00 0.00 100 1015.5
20260507154012 13 145 0.0 1.6 0.00 0.00 0.00 100 1015.5
20260507153913 13 145 0.0 1.6 0.00 0.00 0.00 100 1015.5
20260507153813 13 145 0.0 1.6 0.00 0.00 0.00 100 1015.5
20260507153713 13 145 1.6 3.2 0.00 0.00 0.00 100 1015.5
20260507153613 13 145 0.0 3.2 0.00 0.00 0.00 100 1015.4
20260507153512 13 145 0.0 3.2 0.00 0.00 0.00 100 1015.5
20260507153412 13 145 1.6 3.2 0.00 0.00 0.00 100 1015.5
20260507153312 13 145 1.6 1.6 0.00 0.00 0.00 100 1015.5
20260507153213 13 145 0.0 4.8 0.00 0.00 0.00 100 1015.5
20260507153113 13 145 0.0 4.8 0.00 0.00 0.00 100 1015.5
20260507153013 13 145 3.2 4.8 0.00 0.00 0.00 100 1015.5
20260507152913 13 145 3.2 4.8 0.00 0.00 0.00 100 1015.5
20260507152813 13 145 1.6 4.8 0.00 0.00 0.00 100 1015.5
20260507152713 13 96 3.2 3.2 0.00 0.00 0.00 100 1015.5
20260507152613 13 76 0.0 1.6 0.00 0.00 0.00 100 1015.5
20260507152513 13 76 0.0 1.6 0.00 0.00 0.00 100 1015.5
20260507152412 13 76 1.6 1.6 0.00 0.00 0.00 100 1015.5
20260507152312 13 76 0.0 1.6 0.00 0.00 0.00 100 1015.5
20260507152212 13 71 0.0 3.2 0.00 0.00 0.00 100 1015.5
20260507152112 13 5 0.0 1.6 0.00 0.00 0.00 100 1015.5
20260507152012 13 5 0.0 1.6 0.00 0.00 0.00 100 1015.5
20260507151912 13 5 0.0 1.6 0.00 0.00 0.00 100 1015.5
20260507151812 13 5 0.0 1.6 0.00 0.00 0.00 100 1015.5
20260507151712 13 5 0.0 3.2 0.00 0.00 0.00 100 1015.5
20260507151612 13 5 0.0 3.2 0.00 0.00 0.00 100 1015.5
20260507151512 13 5 0.0 3.2 0.00 0.00 0.00 100 1015.5
20260507151411 13 5 1.6 3.2 0.00 0.00 0.00 100 1015.5
20260507151311 13 5 0.0 1.6 0.00 0.00 0.00 100 1015.5
20260507151212 13 5 3.2 4.8 0.00 0.00 0.00 100 1015.5
20260507151112 13 5 1.6 4.8 0.00 0.00 0.00 100 1015.5
20260507151012 13 5 1.6 4.8 0.00 0.00 0.00 100 1015.5
20260507150912 13 5 3.2 4.8 0.00 0.00 0.00 100 1015.5
20260507150813 13 343 3.2 4.8 0.00 0.00 0.00 100 1015.5
20260507150713 13 344 1.6 4.8 0.00 0.00 0.00 100 1015.5
20260507150613 13 344 3.2 4.8 0.00 0.00 0.00 100 1015.5
20260507150512 13 334 1.6 4.8 0.00 0.00 0.00 100 1015.5
20260507150412 13 350 3.2 3.2 0.00 0.00 0.00 100 1015.5
20260507150312 13 350 1.6 3.2 0.00 0.00 0.00 100 1015.5
20260507150213 13 350 1.6 3.2 0.00 0.00 0.00 100 1015.5
20260507150113 13 350 1.6 3.2 0.00 0.00 0.00 100 1015.5
20260507150013 13 350 1.6 3.2 0.00 0.00 0.00 100 1015.5
20260507145913 13 350 1.6 3.2 0.00 0.00 0.00 100 1015.5
20260507145812 13 350 0.0 3.2 0.00 0.00 0.00 100 1015.5
20260507145712 13 355 1.6 3.2 0.00 0.00 0.00 100 1015.5
20260507145612 13 355 3.2 3.2 0.00 0.00 0.00 100 1015.5
20260507145512 13 355 1.6 3.2 0.00 0.00 0.00 100 1015.5
20260507145412 13 355 1.6 1.6 0.00 0.00 0.00 100 1015.5
20260507145311 13 355 1.6 1.6 0.00 0.00 0.00 100 1015.5
20260507145211 13 355 0.0 3.2 0.00 0.00 0.00 100 1015.5
20260507145111 13 355 0.0 3.2 0.00 0.00 0.00 100 1015.5
20260507145013 13 355 1.6 3.2 0.00 0.00 0.00 100 1015.5
20260507144913 13 351 1.6 3.2 0.00 0.00 0.00 100 1015.5
20260507144813 13 351 1.6 3.2 0.00 0.00 0.00 100 1015.5
20260507144713 13 355 0.0 4.8 0.00 0.00 0.00 1 1015.5
20260507144612 13 355 1.6 4.8 0.00 0.00 0.00 1 1015.4
20260507144511 13 348 1.6 4.8 0.00 0.00 0.00 2 1015.4
20260507144411 13 12 1.6 3.2 0.00 0.00 0.00 2 1015.4
20260507144311 13 328 1.6 3.2 0.00 0.00 0.00 3 1015.4
20260507144211 13 330 3.2 4.8 0.00 0.00 0.00 3 1015.5
20260507144111 13 15 0.0 4.8 0.00 0.00 0.00 3 1015.5
20260507144011 13 14 1.6 4.8 0.00 0.00 0.00 4 1015.4
20260507143913 13 360 1.6 4.8 0.00 0.00 0.00 4 1015.5
20260507143813 13 5 4.8 4.8 0.00 0.00 0.00 4 1015.5
20260507143713 13 5 3.2 4.8 0.00 0.00 0.00 4 1015.5
20260507143612 13 355 3.2 4.8 0.00 0.00 0.00 4 1015.5
20260507143512 13 13 3.2 4.8 0.00 0.00 0.00 5 1015.5
20260507143412 13 42 1.6 4.8 0.00 0.00 0.00 5 1015.4
20260507143312 13 42 3.2 4.8 0.00 0.00 0.00 4 1015.5
20260507143213 13 46 4.8 4.8 0.00 0.00 0.00 4 1015.5
20260507143112 13 29 3.2 4.8 0.00 0.00 0.00 4 1015.5
20260507143011 13 32 3.2 4.8 0.00 0.00 0.00 4 1015.5
20260507142911 13 30 4.8 4.8 0.00 0.00 0.00 4 1015.5
20260507142812 13 36 4.8 4.8 0.00 0.00 0.00 4 1015.5
20260507142712 13 28 1.6 4.8 0.00 0.00 0.00 3 1015.5
20260507142612 13 51 0.0 4.8 0.00 0.00 0.00 3 1015.5
20260507142512 13 53 1.6 4.8 0.00 0.00 0.00 3 1015.5
20260507142412 13 66 4.8 4.8 0.00 0.00 0.00 3 1015.5
20260507142312 13 76 0.0 3.2 0.00 0.00 0.00 3 1015.5
20260507142212 13 75 1.6 9.7 0.00 0.00 0.00 4 1015.5
20260507142112 13 40 3.2 9.7 0.00 0.00 0.00 4 1015.5
20260507142012 13 22 6.4 9.7 0.00 0.00 0.00 4 1015.5
20260507141912 13 58 4.8 4.8 0.00 0.00 0.00 4 1015.5
20260507141812 13 34 1.6 3.2 0.00 0.00 0.00 4 1015.5
20260507141712 13 45 4.8 8.0 0.00 0.00 0.00 4 1015.5
20260507141612 13 17 4.8 8.0 0.00 0.00 0.00 5 1015.5
20260507141512 13 43 4.8 8.0 0.00 0.00 0.00 5 1015.6
20260507141412 13 47 4.8 8.0 0.00 0.00 0.00 5 1015.6
20260507141313 13 30 4.8 4.8 0.00 0.00 0.00 6 1015.6
20260507141213 13 360 4.8 6.4 0.00 0.00 0.00 6 1015.6
20260507141113 13 65 3.2 6.4 0.00 0.00 0.00 6 1015.6
20260507141013 13 39 3.2 6.4 0.00 0.00 0.00 7 1015.6
20260507140913 13 69 3.2 4.8 0.00 0.00 0.00 7 1015.6
20260507140813 13 19 3.2 4.8 0.00 0.00 0.00 7 1015.6
20260507140713 13 57 1.6 6.4 0.00 0.00 0.00 7 1015.6
20260507140612 13 82 4.8 6.4 0.00 0.00 0.00 7 1015.6
20260507140513 13 28 3.2 6.4 0.00 0.00 0.00 8 1015.6
20260507140412 13 38 1.6 6.4 0.00 0.00 0.00 8 1015.6
20260507140312 13 61 4.8 6.4 0.00 0.00 0.00 8 1015.6
20260507140212 14 44 1.6 6.4 0.00 0.00 0.00 8 1015.6
20260507140112 14 31 0.0 6.4 0.00 0.00 0.00 8 1015.6
20260507140012 14 33 1.6 6.4 0.00 0.00 0.00 8 1015.6
20260507135912 14 36 4.8 4.8 0.00 0.00 0.00 8 1015.6
20260507135812 14 75 1.6 1.6 0.00 0.00 0.00 9 1015.6
20260507135712 14 92 1.6 8.0 0.00 0.00 0.00 9 1015.6
20260507135612 14 57 3.2 8.0 0.00 0.00 0.00 9 1015.6
20260507135512 14 65 4.8 8.0 0.00 0.00 0.00 9 1015.6
20260507135412 14 78 4.8 8.0 0.00 0.00 0.00 9 1015.6
20260507135312 14 68 4.8 8.0 0.00 0.00 0.00 10 1015.6
20260507135212 14 53 3.2 9.7 0.00 0.00 0.00 10 1015.6
20260507135112 14 37 3.2 9.7 0.00 0.00 0.00 10 1015.6
20260507135012 14 88 6.4 9.7 0.00 0.00 0.00 11 1015.6
20260507134913 14 74 9.7 9.7 0.00 0.00 0.00 11 1015.6
20260507134812 14 78 4.8 8.0 0.00 0.00 0.00 11 1015.5
20260507134712 14 63 3.2 8.0 0.00 0.00 0.00 11 1015.5
20260507134612 14 77 4.8 8.0 0.00 0.00 0.00 11 1015.5
20260507134512 14 34 4.8 8.0 0.00 0.00 0.00 12 1015.5
20260507134412 14 73 3.2 6.4 0.00 0.00 0.00 12 1015.5
20260507134313 14 63 4.8 6.4 0.00 0.00 0.00 13 1015.5
20260507134213 14 67 4.8 12.9 0.00 0.00 0.00 13 1015.5
20260507134113 14 67 4.8 12.9 0.00 0.00 0.00 14 1015.5
20260507134013 14 78 4.8 12.9 0.00 0.00 0.00 14 1015.6
20260507133913 14 100 8.0 12.9 0.00 0.00 0.00 13 1015.6
20260507133813 14 42 6.4 6.4 0.00 0.00 0.00 13 1015.5
20260507133713 14 57 4.8 12.9 0.00 0.00 0.00 13 1015.6
20260507133612 14 73 4.8 12.9 0.00 0.00 0.00 13 1015.6
20260507133512 15 89 6.4 9.7 0.00 0.00 0.00 13 1015.6
20260507133412 15 72 4.8 8.0 0.00 0.00 0.00 14 1015.5
20260507133313 15 140 4.8 4.8 0.00 0.00 0.00 16 1015.5
20260507133213 15 134 3.2 4.8 0.00 0.00 0.00 16 1015.5
20260507133112 15 61 4.8 4.8 0.00 0.00 0.00 17 1015.5
20260507133012 15 57 1.6 4.8 0.00 0.00 0.00 18 1015.5
20260507132912 15 133 1.6 4.8 0.00 0.00 0.00 19 1015.5
20260507132812 15 91 4.8 4.8 0.00 0.00 0.00 20 1015.5
20260507132712 15 150 3.2 9.7 0.00 0.00 0.00 20 1015.5
20260507132612 15 69 3.2 9.7 0.00 0.00 0.00 21 1015.5
20260507132512 15 76 4.8 9.7 0.00 0.00 0.00 22 1015.5
20260507132412 15 91 1.6 9.7 0.00 0.00 0.00 23 1015.5
20260507132312 15 74 3.2 4.8 0.00 0.00 0.00 23 1015.5
20260507132212 15 86 4.8 4.8 0.00 0.00 0.00 23 1015.5
20260507132112 15 117 3.2 4.8 0.00 0.00 0.00 23 1015.5
20260507132012 15 86 3.2 4.8 0.00 0.00 0.00 23 1015.5
20260507131912 15 95 4.8 4.8 0.00 0.00 0.00 23 1015.5
20260507131812 15 127 3.2 4.8 0.00 0.00 0.00 23 1015.5
20260507131713 15 155 1.6 8.0 0.00 0.00 0.00 23 1015.5
20260507131612 15 143 4.8 8.0 0.00 0.00 0.00 23 1015.5
20260507131512 15 94 1.6 8.0 0.00 0.00 0.00 23 1015.5
20260507131412 15 40 4.8 6.4 0.00 0.00 0.00 23 1015.5
20260507131312 15 85 0.0 3.2 0.00 0.00 0.00 22 1015.5
20260507131212 15 71 1.6 9.7 0.00 0.00 0.00 22 1015.5
20260507131112 15 76 0.0 9.7 0.00 0.00 0.00 22 1015.5
20260507131013 15 110 4.8 9.7 0.00 0.00 0.00 23 1015.5
20260507130913 15 52 4.8 4.8 0.00 0.00 0.00 23 1015.5
20260507130813 15 71 1.6 4.8 0.00 0.00 0.00 24 1015.5
20260507130713 15 81 1.6 6.4 0.00 0.00 0.00 24 1015.6
20260507130613 15 46 1.6 6.4 0.00 0.00 0.00 25 1015.5
20260507130512 15 26 1.6 6.4 0.00 0.00 0.00 25 1015.6
20260507130412 15 80 6.4 6.4 0.00 0.00 0.00 27 1015.6
20260507130311 15 36 1.6 4.8 0.00 0.00 0.00 28 1015.6
20260507130211 15 80 4.8 8.0 0.00 0.00 0.00 28 1015.5
20260507130113 15 53 4.8 8.0 0.00 0.00 0.00 29 1015.6
20260507130013 15 37 1.6 8.0 0.00 0.00 0.00 29 1015.5
20260507125913 15 65 3.2 4.8 0.00 0.00 0.00 30 1015.5
20260507125813 15 49 3.2 4.8 0.00 0.00 0.00 31 1015.5
20260507125713 15 36 4.8 9.7 0.00 0.00 0.00 32 1015.5
20260507125613 15 40 3.2 9.7 0.00 0.00 0.00 32 1015.5
20260507125512 15 65 1.6 8.0 0.00 0.00 0.00 33 1015.6
20260507125412 15 73 4.8 8.0 0.00 0.00 0.00 34 1015.6
20260507125312 15 42 1.6 4.8 0.00 0.00 0.00 35 1015.5
20260507125212 15 67 4.8 14.5 0.00 0.00 0.00 36 1015.5
20260507125113 15 35 6.4 14.5 0.00 0.00 0.00 37 1015.5
20260507125013 15 60 6.4 8.0 0.00 0.00 0.00 38 1015.5
20260507124913 15 37 8.0 8.0 0.00 0.00 0.00 39 1015.5
20260507124813 15 47 4.8 6.4 0.00 0.00 0.00 39 1015.5
20260507124713 15 88 4.8 12.9 0.00 0.00 0.00 40 1015.5
20260507124613 15 40 3.2 12.9 0.00 0.00 0.00 41 1015.5
20260507124513 16 70 4.8 12.9 0.00 0.00 0.00 41 1015.5
20260507124411 16 48 8.0 12.9 0.00 0.00 0.00 42 1015.5
20260507124311 16 15 6.4 12.9 0.00 0.00 0.00 42 1015.5
20260507124211 16 72 3.2 11.3 0.00 0.00 0.00 42 1015.5
20260507124112 16 88 6.4 11.3 0.00 0.00 0.00 43 1015.5
20260507124012 16 36 4.8 11.3 0.00 0.00 0.00 43 1015.4
20260507123912 16 57 4.8 11.3 0.00 0.00 0.00 43 1015.4
20260507123812 16 63 4.8 4.8 0.00 0.00 0.00 44 1015.5
20260507123712 16 77 4.8 11.3 0.00 0.00 0.00 44 1015.4
20260507123612 16 80 4.8 11.3 0.00 0.00 0.00 44 1015.5
20260507123512 16 69 4.8 11.3 0.00 0.00 0.00 44 1015.5
20260507123413 16 80 6.4 11.3 0.00 0.00 0.00 44 1015.5
20260507123313 16 89 4.8 11.3 0.00 0.00 0.00 44 1015.5
20260507123213 16 146 1.6 6.4 0.00 0.00 0.00 44 1015.4
20260507123112 16 96 3.2 6.4 0.00 0.00 0.00 44 1015.5
20260507123012 16 138 3.2 4.8 0.00 0.00 0.00 44 1015.4
20260507122912 16 42 3.2 4.8 0.00 0.00 0.00 44 1015.5
20260507122812 17 82 4.8 4.8 0.00 0.00 0.00 44 1015.5
20260507122712 17 46 6.4 6.4 0.00 0.00 0.00 44 1015.4
20260507122612 17 100 1.6 6.4 0.00 0.00 0.00 44 1015.4
20260507122512 17 123 1.6 6.4 0.00 0.00 0.00 44 1015.5
20260507122413 17 139 4.8 6.4 0.00 0.00 0.00 44 1015.4
20260507122313 17 148 3.2 3.2 0.00 0.00 0.00 44 1015.4
20260507122213 17 123 1.6 14.5 0.00 0.00 0.00 44 1015.4
20260507122113 17 161 3.2 14.5 0.00 0.00 0.00 44 1015.4
20260507122012 17 93 6.4 14.5 0.00 0.00 0.00 44 1015.4
20260507121912 17 143 3.2 14.5 0.00 0.00 0.00 44 1015.4
20260507121811 17 61 4.8 8.0 0.00 0.00 0.00 44 1015.5
20260507121711 17 55 6.4 9.7 0.00 0.00 0.00 44 1015.4
20260507121613 17 82 1.6 9.7 0.00 0.00 0.00 44 1015.5
20260507121513 17 105 3.2 9.7 0.00 0.00 0.00 43 1015.5
20260507121413 17 91 6.4 6.4 0.00 0.00 0.00 43 1015.4
20260507121312 17 123 0.0 3.2 0.00 0.00 0.00 43 1015.5
20260507121212 17 122 1.6 11.3 0.00 0.00 0.00 43 1015.4
20260507121112 17 86 0.0 11.3 0.00 0.00 0.00 42 1015.5
20260507121012 17 64 4.8 11.3 0.00 0.00 0.00 42 1015.4
20260507120912 17 71 4.8 11.3 0.00 0.00 0.00 42 1015.4
20260507120812 17 50 4.8 11.3 0.00 0.00 0.00 42 1015.4
20260507120712 17 32 1.6 6.4 0.00 0.00 0.00 42 1015.4
20260507120611 17 84 3.2 6.4 0.00 0.00 0.00 42 1015.4
20260507120511 17 215 1.6 6.4 0.00 0.00 0.00 42 1015.4
20260507120411 17 215 3.2 6.4 0.00 0.00 0.00 42 1015.4
20260507120311 17 188 6.4 6.4 0.00 0.00 0.00 42 1015.4
20260507120211 17 192 1.6 9.7 0.00 0.00 0.00 42 1015.4
20260507120113 17 253 1.6 9.7 0.00 0.00 0.00 42 1015.5
20260507120013 17 323 0.0 9.7 0.00 0.00 0.00 41 1015.4
20260507115913 17 313 4.8 9.7 0.00 0.00 0.00 41 1015.5
20260507115812 17 320 4.8 9.7 0.00 0.00 0.00 41 1015.5
20260507115712 17 19 4.8 9.7 0.00 0.00 0.00 41 1015.5
20260507115613 17 34 3.2 9.7 0.00 0.00 0.00 41 1015.4
20260507115512 17 77 1.6 9.7 0.00 0.00 0.00 41 1015.4
20260507115412 17 42 1.6 9.7 0.00 0.00 0.00 41 1015.4
20260507115312 17 65 0.0 9.7 0.00 0.00 0.00 41 1015.5
20260507115211 17 25 6.4 6.4 0.00 0.00 0.00 41 1015.4
20260507115111 17 96 0.0 6.4 0.00 0.00 0.00 41 1015.4
20260507115013 17 49 4.8 4.8 0.00 0.00 0.00 41 1015.4
20260507114912 17 246 0.0 3.2 0.00 0.00 0.00 41 1015.4
20260507114812 17 331 3.2 3.2 0.00 0.00 0.00 41 1015.4
20260507114712 16 71 3.2 4.8 0.00 0.00 0.00 40 1015.4
20260507114612 16 92 1.6 4.8 0.00 0.00 0.00 40 1015.4
20260507114512 16 90 0.0 4.8 0.00 0.00 0.00 41 1015.5
20260507114412 16 88 1.6 3.2 0.00 0.00 0.00 41 1015.4
20260507114313 16 138 1.6 3.2 0.00 0.00 0.00 41 1015.4
20260507114212 16 98 0.0 4.8 0.00 0.00 0.00 41 1015.4
20260507114112 16 68 3.2 4.8 0.00 0.00 0.00 41 1015.4
20260507114012 16 74 3.2 4.8 0.00 0.00 0.00 41 1015.5
20260507113912 16 32 3.2 3.2 0.00 0.00 0.00 41 1015.4
20260507113812 16 150 1.6 3.2 0.00 0.00 0.00 41 1015.5
20260507113712 16 144 4.8 4.8 0.00 0.00 0.00 41 1015.5
20260507113612 16 159 1.6 4.8 0.00 0.00 0.00 40 1015.5
20260507113512 16 206 3.2 4.8 0.00 0.00 0.00 40 1015.5
20260507113412 16 100 1.6 4.8 0.00 0.00 0.00 41 1015.5
20260507113312 16 153 3.2 4.8 0.00 0.00 0.00 40 1015.5
20260507113212 16 146 4.8 6.4 0.00 0.00 0.00 40 1015.5
20260507113113 16 184 4.8 6.4 0.00 0.00 0.00 41 1015.5
20260507113012 16 51 0.0 6.4 0.00 0.00 0.00 41 1015.5
20260507112911 16 78 0.0 6.4 0.00 0.00 0.00 41 1015.6
20260507112811 16 111 1.6 6.4 0.00 0.00 0.00 41 1015.6
20260507112711 16 103 1.6 4.8 0.00 0.00 0.00 41 1015.6
20260507112611 16 34 1.6 4.8 0.00 0.00 0.00 41 1015.6
20260507112512 16 96 3.2 4.8 0.00 0.00 0.00 41 1015.6
20260507112412 16 152 3.2 3.2 0.00 0.00 0.00 41 1015.6
20260507112312 16 110 1.6 3.2 0.00 0.00 0.00 42 1015.6
20260507112213 16 111 4.8 8.0 0.00 0.00 0.00 42 1015.6
20260507112113 16 151 3.2 6.4 0.00 0.00 0.00 42 1015.6
20260507112013 16 123 4.8 4.8 0.00 0.00 0.00 42 1015.6
20260507111913 16 161 4.8 4.8 0.00 0.00 0.00 41 1015.6
20260507111813 16 112 4.8 4.8 0.00 0.00 0.00 41 1015.6
20260507111713 16 180 1.6 4.8 0.00 0.00 0.00 41 1015.6
20260507111613 16 175 4.8 4.8 0.00 0.00 0.00 41 1015.6
20260507111513 16 191 4.8 4.8 0.00 0.00 0.00 41 1015.7
20260507111413 16 144 3.2 4.8 0.00 0.00 0.00 41 1015.6
20260507111313 16 122 4.8 4.8 0.00 0.00 0.00 41 1015.6
20260507111213 16 126 1.6 6.4 0.00 0.00 0.00 41 1015.6
20260507111112 16 120 4.8 6.4 0.00 0.00 0.00 41 1015.7
20260507111012 16 163 4.8 6.4 0.00 0.00 0.00 41 1015.7
20260507110912 16 82 3.2 6.4 0.00 0.00 0.00 41 1015.6
20260507110811 16 70 1.6 3.2 0.00 0.00 0.00 41 1015.7
20260507110711 15 134 3.2 4.8 0.00 0.00 0.00 41 1015.7
20260507110611 15 171 3.2 4.8 0.00 0.00 0.00 40 1015.8
20260507110511 15 153 4.8 4.8 0.00 0.00 0.00 40 1015.8
20260507110411 15 161 3.2 4.8 0.00 0.00 0.00 40 1015.7
20260507110311 15 186 4.8 4.8 0.00 0.00 0.00 40 1015.8
20260507110213 15 46 4.8 4.8 0.00 0.00 0.00 40 1015.8
20260507110113 15 32 3.2 4.8 0.00 0.00 0.00 40 1015.8
20260507110013 15 68 3.2 4.8 0.00 0.00 0.00 40 1015.8
20260507105913 15 34 1.6 3.2 0.00 0.00 0.00 40 1015.8
20260507105813 15 355 3.2 3.2 0.00 0.00 0.00 40 1015.8
20260507105713 15 44 4.8 4.8 0.00 0.00 0.00 40 1015.8
20260507105613 15 41 4.8 4.8 0.00 0.00 0.00 39 1015.8
20260507105512 15 96 3.2 4.8 0.00 0.00 0.00 40 1015.8
20260507105412 15 40 4.8 4.8 0.00 0.00 0.00 40 1015.8
20260507105311 15 84 4.8 4.8 0.00 0.00 0.00 40 1015.8
20260507105211 15 84 4.8 6.4 0.00 0.00 0.00 40 1015.8
20260507105111 15 70 3.2 6.4 0.00 0.00 0.00 39 1015.9
20260507105013 15 104 3.2 6.4 0.00 0.00 0.00 39 1015.8
20260507104912 15 28 3.2 6.4 0.00 0.00 0.00 39 1015.9
20260507104812 15 65 3.2 6.4 0.00 0.00 0.00 39 1015.9
20260507104712 15 88 4.8 6.4 0.00 0.00 0.00 39 1015.9
20260507104612 15 20 1.6 4.8 0.00 0.00 0.00 39 1015.9
20260507104514 15 71 3.2 4.8 0.00 0.00 0.00 38 1015.9
20260507104413 15 62 0.0 4.8 0.00 0.00 0.00 38 1015.9
20260507104313 15 62 1.6 4.8 0.00 0.00 0.00 38 1015.9
20260507104213 15 83 1.6 9.7 0.00 0.00 0.00 38 1015.9
20260507104111 15 61 4.8 9.7 0.00 0.00 0.00 37 1015.9
20260507104012 15 86 4.8 6.4 0.00 0.00 0.00 37 1015.9
20260507103911 15 78 3.2 4.8 0.00 0.00 0.00 36 1015.9
20260507103811 15 179 3.2 4.8 0.00 0.00 0.00 36 1015.9
20260507103712 15 120 4.8 6.4 0.00 0.00 0.00 36 1015.9
20260507103612 15 281 1.6 6.4 0.00 0.00 0.00 36 1015.9
20260507103512 15 343 3.2 6.4 0.00 0.00 0.00 36 1015.9
20260507103412 15 346 4.8 6.4 0.00 0.00 0.00 36 1016.0
20260507103312 15 50 6.4 6.4 0.00 0.00 0.00 36 1016.0
20260507103212 15 342 4.8 4.8 0.00 0.00 0.00 35 1016.0
20260507103112 15 5 4.8 4.8 0.00 0.00 0.00 35 1016.0
20260507103012 15 42 3.2 4.8 0.00 0.00 0.00 35 1016.0
20260507102912 15 150 4.8 4.8 0.00 0.00 0.00 35 1015.9
20260507102812 15 15 3.2 4.8 0.00 0.00 0.00 35 1016.0
20260507102713 15 326 4.8 6.4 0.00 0.00 0.00 35 1016.0
20260507102612 15 323 4.8 6.4 0.00 0.00 0.00 36 1016.0
20260507102512 15 350 6.4 6.4 0.00 0.00 0.00 35 1016.0
20260507102412 15 334 3.2 3.2 0.00 0.00 0.00 35 1016.0
20260507102312 15 54 1.6 1.6 0.00 0.00 0.00 35 1016.0
20260507102212 15 44 1.6 4.8 0.00 0.00 0.00 35 1016.0
20260507102112 15 82 1.6 4.8 0.00 0.00 0.00 34 1016.0
20260507102012 15 336 1.6 4.8 0.00 0.00 0.00 34 1016.1
20260507101912 15 95 1.6 4.8 0.00 0.00 0.00 34 1016.1
20260507101812 15 180 4.8 4.8 0.00 0.00 0.00 33 1016.1
20260507101713 15 177 1.6 6.4 0.00 0.00 0.00 33 1016.1
20260507101613 15 92 0.0 6.4 0.00 0.00 0.00 33 1016.1
20260507101513 15 96 4.8 6.4 0.00 0.00 0.00 32 1016.1
20260507101413 15 63 6.4 6.4 0.00 0.00 0.00 32 1016.1
20260507101313 15 109 1.6 4.8 0.00 0.00 0.00 32 1016.1
20260507101212 15 196 1.6 8.0 0.00 0.00 0.00 32 1016.1
20260507101112 15 196 0.0 8.0 0.00 0.00 0.00 32 1016.1
20260507101011 15 150 6.4 8.0 0.00 0.00 0.00 32 1016.1
20260507100911 15 48 1.6 3.2 0.00 0.00 0.00 32 1016.1
20260507100811 15 74 3.2 3.2 0.00 0.00 0.00 32 1016.0
20260507100713 15 56 3.2 8.0 0.00 0.00 0.00 32 1016.0
20260507100613 15 41 4.8 8.0 0.00 0.00 0.00 32 1016.0
20260507100513 15 11 4.8 8.0 0.00 0.00 0.00 31 1016.0
20260507100412 15 14 4.8 8.0 0.00 0.00 0.00 30 1016.0
20260507100312 15 43 4.8 4.8 0.00 0.00 0.00 27 1016.0
20260507100212 15 62 4.8 6.4 0.00 0.00 0.00 26 1016.0
20260507100111 15 37 4.8 4.8 0.00 0.00 0.00 26 1016.0
20260507100011 15 87 1.6 4.8 0.00 0.00 0.00 25 1016.0
20260507095911 15 104 0.0 4.8 0.00 0.00 0.00 25 1015.9
20260507095813 15 121 1.6 4.8 0.00 0.00 0.00 24 1016.0
20260507095713 15 161 1.6 4.8 0.00 0.00 0.00 24 1015.9
20260507095613 15 80 1.6 4.8 0.00 0.00 0.00 26 1016.0
20260507095513 15 48 4.8 4.8 0.00 0.00 0.00 25 1016.0
20260507095413 15 109 1.6 4.8 0.00 0.00 0.00 25 1015.9
20260507095312 15 123 1.6 4.8 0.00 0.00 0.00 26 1016.0
20260507095212 15 56 3.2 11.3 0.00 0.00 0.00 25 1016.0
20260507095112 15 78 0.0 11.3 0.00 0.00 0.00 25 1016.0
20260507095012 15 61 3.2 11.3 0.00 0.00 0.00 25 1016.0
20260507094912 15 67 4.8 11.3 0.00 0.00 0.00 25 1016.0
20260507094812 15 70 4.8 11.3 0.00 0.00 0.00 25 1016.0
20260507094713 15 32 3.2 6.4 0.00 0.00 0.00 26 1016.0
20260507094613 15 9 6.4 6.4 0.00 0.00 0.00 25 1016.0
20260507094513 15 72 4.8 4.8 0.00 0.00 0.00 27 1016.0
20260507094413 15 37 1.6 4.8 0.00 0.00 0.00 27 1015.9
20260507094313 15 345 3.2 4.8 0.00 0.00 0.00 27 1016.0
20260507094212 15 248 0.0 4.8 0.00 0.00 0.00 26 1015.9
20260507094112 15 347 3.2 4.8 0.00 0.00 0.00 26 1015.9
20260507094012 15 63 1.6 4.8 0.00 0.00 0.00 25 1015.9
20260507093912 15 73 1.6 4.8 0.00 0.00 0.00 22 1015.9
20260507093812 15 50 3.2 4.8 0.00 0.00 0.00 21 1015.9
20260507093712 15 41 0.0 8.0 0.00 0.00 0.00 20 1015.9
20260507093612 15 32 4.8 8.0 0.00 0.00 0.00 18 1015.9
20260507093512 15 82 8.0 8.0 0.00 0.00 0.00 16 1015.9
20260507093411 15 62 0.0 3.2 0.00 0.00 0.00 15 1016.0
20260507093311 14 157 3.2 3.2 0.00 0.00 0.00 13 1015.9
20260507093213 14 57 3.2 9.7 0.00 0.00 0.00 14 1015.9
20260507093113 14 129 1.6 9.7 0.00 0.00 0.00 14 1015.9
20260507093013 14 77 4.8 9.7 0.00 0.00 0.00 13 1015.9
20260507092913 14 62 9.7 9.7 0.00 0.00 0.00 12 1015.9
20260507092813 14 40 3.2 4.8 0.00 0.00 0.00 12 1015.9
20260507092713 14 28 0.0 9.7 0.00 0.00 0.00 10 1015.9
20260507092611 14 71 4.8 9.7 0.00 0.00 0.00 10 1015.9
20260507092511 14 75 3.2 6.4 0.00 0.00 0.00 10 1015.9
20260507092411 14 42 4.8 6.4 0.00 0.00 0.00 10 1015.9
20260507092311 14 94 6.4 6.4 0.00 0.00 0.00 10 1015.9
20260507092211 14 91 6.4 6.4 0.00 0.00 0.00 12 1015.9
20260507092112 14 51 1.6 4.8 0.00 0.00 0.00 14 1015.9
20260507092012 14 338 1.6 4.8 0.00 0.00 0.00 14 1015.9
20260507091912 14 355 3.2 4.8 0.00 0.00 0.00 11 1016.0
20260507091812 14 10 4.8 4.8 0.00 0.00 0.00 7 1015.9
20260507091712 14 51 0.0 4.8 0.00 0.00 0.00 5 1015.9
20260507091612 14 13 3.2 4.8 0.00 0.00 0.00 4 1015.9
20260507091512 14 5 1.6 4.8 0.00 0.00 0.00 2 1016.0
20260507091412 14 5 3.2 4.8 0.00 0.00 0.00 100 1016.0
20260507091314 14 132 1.6 1.6 0.00 0.00 0.00 1 1016.0
20260507091213 14 81 0.0 4.8 0.00 0.00 0.00 1 1016.0
20260507091112 14 33 1.6 4.8 0.00 0.00 0.00 2 1015.9
20260507091013 14 16 3.2 4.8 0.00 0.00 0.00 100 1016.0
20260507090912 14 39 4.8 4.8 0.00 0.00 0.00 100 1015.9
20260507090812 14 78 1.6 1.6 0.00 0.00 0.00 100 1016.0
20260507090712 14 96 1.6 8.0 0.00 0.00 0.00 100 1015.9
20260507090613 14 44 4.8 8.0 0.00 0.00 0.00 100 1015.9
20260507090513 14 100 6.4 8.0 0.00 0.00 0.00 100 1015.9
20260507090413 13 138 0.0 4.8 0.00 0.00 0.00 100 1015.9
20260507090313 13 138 3.2 4.8 0.00 0.00 0.00 100 1015.9
20260507090213 13 109 0.0 6.4 0.00 0.00 0.00 100 1015.9
20260507090111 13 107 3.2 6.4 0.00 0.00 0.00 100 1015.9
20260507090012 13 61 6.4 6.4 0.00 0.00 0.00 100 1015.9
20260507085912 13 101 4.8 4.8 0.00 0.00 0.00 100 1015.9
20260507085812 13 73 4.8 4.8 0.00 0.00 0.00 100 1015.9
20260507085712 13 150 1.6 3.2 0.00 0.00 0.00 100 1015.9
20260507085612 13 92 0.0 3.2 0.00 0.00 0.00 100 1015.9
20260507085512 13 82 1.6 3.2 0.00 0.00 0.00 100 1015.8
20260507085412 13 80 0.0 1.6 0.00 0.00 0.00 100 1015.8
20260507085312 13 80 0.0 1.6 0.00 0.00 0.00 100 1015.8
20260507085212 13 80 0.0 6.4 0.00 0.00 0.00 100 1015.8
20260507085113 13 80 0.0 6.4 0.00 0.00 0.00 100 1015.9
20260507085013 13 81 1.6 6.4 0.00 0.00 0.00 100 1015.8
20260507084913 13 28 4.8 6.4 0.00 0.00 0.00 100 1015.9
20260507084813 13 17 4.8 4.8 0.00 0.00 0.00 100 1015.8
20260507084713 13 33 4.8 6.4 0.00 0.00 0.00 100 1015.9
20260507084612 13 91 3.2 6.4 0.00 0.00 0.00 100 1015.8
20260507084512 13 54 0.0 6.4 0.00 0.00 0.00 100 1015.8
20260507084412 13 54 1.6 6.4 0.00 0.00 0.00 100 1015.8
20260507084312 13 78 3.2 4.8 0.00 0.00 0.00 100 1015.9
20260507084211 13 85 6.4 9.7 0.00 0.00 0.00 100 1015.8
20260507084113 13 127 1.6 6.4 0.00 0.00 0.00 100 1015.8
20260507084013 13 82 4.8 6.4 0.00 0.00 0.00 100 1015.8
20260507083913 13 28 3.2 6.4 0.00 0.00 0.00 100 1015.8
20260507083813 13 355 3.2 6.4 0.00 0.00 0.00 100 1015.8
20260507083713 13 36 4.8 8.0 0.00 0.00 0.00 100 1015.8
20260507083613 13 5 3.2 8.0 0.00 0.00 0.00 100 1015.8
20260507083513 13 111 4.8 8.0 0.00 0.00 0.00 100 1015.9
20260507083413 13 80 3.2 4.8 0.00 0.00 0.00 100 1015.9
20260507083313 13 55 4.8 4.8 0.00 0.00 0.00 100 1015.9
20260507083212 13 40 3.2 9.7 0.00 0.00 0.00 100 1015.8
20260507083112 13 73 3.2 6.4 0.00 0.00 0.00 100 1015.8
20260507083012 13 20 4.8 6.4 0.00 0.00 0.00 100 1015.9
20260507082912 13 46 1.6 4.8 0.00 0.00 0.00 100 1015.9
20260507082812 13 32 3.2 4.8 0.00 0.00 0.00 100 1015.9
20260507082712 13 52 4.8 6.4 0.00 0.00 0.00 100 1015.9
20260507082612 13 52 4.8 4.8 0.00 0.00 0.00 100 1015.8
20260507082512 13 55 3.2 4.8 0.00 0.00 0.00 100 1015.9
20260507082412 13 11 4.8 4.8 0.00 0.00 0.00 100 1015.9
20260507082312 13 65 3.2 3.2 0.00 0.00 0.00 100 1015.9
20260507082212 13 61 4.8 6.4 0.00 0.00 0.00 100 1015.8
20260507082112 13 150 0.0 4.8 0.00 0.00 0.00 100 1015.8
20260507082012 13 150 1.6 4.8 0.00 0.00 0.00 100 1015.8
20260507081911 13 125 3.2 4.8 0.00 0.00 0.00 100 1015.8
20260507081812 13 169 1.6 3.2 0.00 0.00 0.00 100 1015.8
20260507081712 13 49 0.0 6.4 0.00 0.00 0.00 100 1015.8
20260507081612 12 43 1.6 6.4 0.00 0.00 0.00 100 1015.8
20260507081511 12 32 1.6 6.4 0.00 0.00 0.00 100 1015.8
20260507081411 12 11 3.2 6.4 0.00 0.00 0.00 100 1015.8
20260507081312 12 19 1.6 4.8 0.00 0.00 0.00 100 1015.8
20260507081212 12 80 1.6 6.4 0.00 0.00 0.00 100 1015.8
20260507081112 12 68 3.2 6.4 0.00 0.00 0.00 100 1015.8
20260507081012 12 26 4.8 6.4 0.00 0.00 0.00 100 1015.8
20260507080912 12 35 3.2 6.4 0.00 0.00 0.00 100 1015.8
20260507080812 12 31 4.8 4.8 0.00 0.00 0.00 100 1015.8
20260507080712 12 22 4.8 4.8 0.00 0.00 0.00 100 1015.8
20260507080612 12 18 3.2 4.8 0.00 0.00 0.00 100 1015.8
20260507080512 12 33 4.8 4.8 0.00 0.00 0.00 100 1015.8
20260507080412 12 44 1.6 4.8 0.00 0.00 0.00 100 1015.8
20260507080313 12 355 3.2 4.8 0.00 0.00 0.00 100 1015.8
20260507080213 12 42 3.2 4.8 0.00 0.00 0.00 100 1015.8
20260507080112 12 64 1.6 4.8 0.00 0.00 0.00 100 1015.8
20260507080012 12 56 4.8 4.8 0.00 0.00 0.00 100 1015.8
20260507075912 12 80 3.2 4.8 0.00 0.00 0.00 100 1015.8
20260507075812 12 86 3.2 3.2 0.00 0.00 0.00 100 1015.8
20260507075712 12 96 0.0 4.8 0.00 0.00 0.00 100 1015.8
20260507075612 12 96 1.6 4.8 0.00 0.00 0.00 100 1015.8
20260507075512 12 69 0.0 4.8 0.00 0.00 0.00 100 1015.8
20260507075412 12 72 4.8 4.8 0.00 0.00 0.00 100 1015.8
20260507075312 12 90 1.6 3.2 0.00 0.00 0.00 100 1015.8
20260507075212 12 78 1.6 4.8 0.00 0.00 0.00 100 1015.8
20260507075112 12 77 1.6 4.8 0.00 0.00 0.00 100 1015.8
20260507075012 12 77 3.2 3.2 0.00 0.00 0.00 100 1015.8
20260507074912 12 48 1.6 3.2 0.00 0.00 0.00 100 1015.8
20260507074812 12 48 1.6 3.2 0.00 0.00 0.00 100 1015.8
20260507074711 12 48 1.6 4.8 0.00 0.00 0.00 100 1015.8
20260507074613 12 48 1.6 4.8 0.00 0.00 0.00 100 1015.8
20260507074513 12 53 3.2 4.8 0.00 0.00 0.00 100 1015.7
20260507074413 12 50 3.2 4.8 0.00 0.00 0.00 100 1015.8
20260507074313 12 71 0.0 4.8 0.00 0.00 0.00 100 1015.7
20260507074213 12 75 3.2 4.8 0.00 0.00 0.00 100 1015.7
20260507074113 12 101 0.0 4.8 0.00 0.00 0.00 100 1015.7
20260507074013 12 87 0.0 4.8 0.00 0.00 0.00 100 1015.7
20260507073912 12 71 0.0 1.6 0.00 0.00 0.00 100 1015.7
20260507073812 12 71 0.0 1.6 0.00 0.00 0.00 100 1015.7
20260507073712 12 71 1.6 4.8 0.00 0.00 0.00 100 1015.7
20260507073612 12 71 0.0 4.8 0.00 0.00 0.00 100 1015.8
20260507073512 12 71 1.6 4.8 0.00 0.00 0.00 100 1015.8
20260507073412 12 77 1.6 4.8 0.00 0.00 0.00 100 1015.7
20260507073312 12 79 1.6 3.2 0.00 0.00 0.00 100 1015.8
20260507073212 12 84 1.6 6.4 0.00 0.00 0.00 100 1015.8
20260507073112 12 88 1.6 6.4 0.00 0.00 0.00 100 1015.8
20260507073013 12 88 3.2 6.4 0.00 0.00 0.00 100 1015.7
20260507072913 11 73 0.0 6.4 0.00 0.00 0.00 100 1015.8
20260507072813 11 88 1.6 6.4 0.00 0.00 0.00 100 1015.7
20260507072713 11 11 0.0 4.8 0.00 0.00 0.00 100 1015.8
20260507072612 11 5 0.0 4.8 0.00 0.00 0.00 100 1015.8
20260507072512 11 5 0.0 4.8 0.00 0.00 0.00 100 1015.7
20260507072412 11 5 0.0 4.8 0.00 0.00 0.00 100 1015.7
20260507072311 11 30 3.2 3.2 0.00 0.00 0.00 100 1015.7
20260507072213 11 71 0.0 3.2 0.00 0.00 0.00 100 1015.7
20260507072113 11 38 0.0 1.6 0.00 0.00 0.00 100 1015.7
20260507072013 11 38 0.0 1.6 0.00 0.00 0.00 100 1015.7
20260507071913 11 38 0.0 1.6 0.00 0.00 0.00 100 1015.7
20260507071813 11 37 1.6 1.6 0.00 0.00 0.00 100 1015.6
20260507071712 11 23 0.0 4.8 0.00 0.00 0.00 100 1015.6
20260507071613 11 23 1.6 4.8 0.00 0.00 0.00 100 1015.6
20260507071512 11 23 1.6 4.8 0.00 0.00 0.00 100 1015.6
20260507071412 11 25 1.6 4.8 0.00 0.00 0.00 100 1015.6
20260507071312 11 37 1.6 4.8 0.00 0.00 0.00 100 1015.6
20260507071213 11 5 1.6 3.2 0.00 0.00 0.00 100 1015.6
20260507071113 11 17 0.0 1.6 0.00 0.00 0.00 100 1015.6
20260507071013 11 17 0.0 1.6 0.00 0.00 0.00 100 1015.6
20260507070913 11 19 0.0 1.6 0.00 0.00 0.00 100 1015.6
20260507070813 11 24 0.0 1.6 0.00 0.00 0.00 100 1015.6
20260507070713 11 32 0.0 4.8 0.00 0.00 0.00 100 1015.6
20260507070612 11 24 1.6 4.8 0.00 0.00 0.00 100 1015.6
20260507070513 11 355 3.2 4.8 0.00 0.00 0.00 100 1015.6
20260507070412 11 342 1.6 4.8 0.00 0.00 0.00 100 1015.6
20260507070312 11 329 3.2 4.8 0.00 0.00 0.00 100 1015.6
20260507070212 11 332 3.2 3.2 0.00 0.00 0.00 100 1015.6
20260507070112 11 321 1.6 1.6 0.00 0.00 0.00 100 1015.6
20260507070013 11 321 0.0 1.6 0.00 0.00 0.00 100 1015.6
20260507065913 11 321 0.0 1.6 0.00 0.00 0.00 100 1015.6
20260507065813 11 321 0.0 1.6 0.00 0.00 0.00 100 1015.6
20260507065713 11 321 0.0 3.2 0.00 0.00 0.00 100 1015.6
20260507065612 11 332 0.0 3.2 0.00 0.00 0.00 100 1015.6
20260507065511 11 332 1.6 3.2 0.00 0.00 0.00 100 1015.6
20260507065412 10 332 1.6 3.2 0.00 0.00 0.00 100 1015.6
20260507065311 10 332 1.6 3.2 0.00 0.00 0.00 100 1015.6
20260507065211 10 302 0.0 1.6 0.00 0.00 0.00 100 1015.6
20260507065111 10 302 1.6 1.6 0.00 0.00 0.00 100 1015.7
20260507065013 10 302 0.0 1.6 0.00 0.00 0.00 100 1015.6
20260507064913 10 302 1.6 1.6 0.00 0.00 0.00 100 1015.7
20260507064813 10 302 0.0 1.6 0.00 0.00 0.00 100 1015.6
20260507064713 10 302 0.0 1.6 0.00 0.00 0.00 100 1015.6
20260507064612 10 302 0.0 1.6 0.00 0.00 0.00 100 1015.6
20260507064512 10 302 0.0 1.6 0.00 0.00 0.00 100 1015.6
20260507064412 10 302 0.0 1.6 0.00 0.00 0.00 100 1015.6
20260507064311 10 302 1.6 1.6 0.00 0.00 0.00 100 1015.6
20260507064213 10 302 1.6 3.2 0.00 0.00 0.00 100 1015.6
20260507064113 10 302 0.0 1.6 0.00 0.00 0.00 100 1015.6
20260507064013 10 302 0.0 1.6 0.00 0.00 0.00 100 1015.6
20260507063913 10 302 0.0 0.0 0.00 0.00 0.00 100 1015.6
20260507063813 10 302 0.0 0.0 0.00 0.00 0.00 100 1015.6
20260507063713 10 302 0.0 1.6 0.00 0.00 0.00 100 1015.6
20260507063613 10 302 0.0 1.6 0.00 0.00 0.00 100 1015.6
20260507063512 10 302 0.0 1.6 0.00 0.00 0.00 100 1015.6
20260507063412 10 302 1.6 1.6 0.00 0.00 0.00 100 1015.5
20260507063312 10 302 0.0 0.0 0.00 0.00 0.00 100 1015.6
20260507063212 10 302 1.6 1.6 0.00 0.00 0.00 100 1015.5
20260507063111 10 302 0.0 1.6 0.00 0.00 0.00 100 1015.6
20260507063011 10 302 0.0 1.6 0.00 0.00 0.00 100 1015.6
20260507062913 10 302 0.0 1.6 0.00 0.00 0.00 100 1015.5
20260507062813 10 302 1.6 1.6 0.00 0.00 0.00 100 1015.5
20260507062712 10 302 0.0 3.2 0.00 0.00 0.00 100 1015.5
20260507062613 10 302 0.0 3.2 0.00 0.00 0.00 100 1015.5
20260507062513 10 302 0.0 1.6 0.00 0.00 0.00 100 1015.5
20260507062413 10 302 0.0 1.6 0.00 0.00 0.00 100 1015.4
20260507062313 10 302 0.0 1.6 0.00 0.00 0.00 100 1015.5
20260507062213 10 302 1.6 1.6 0.00 0.00 0.00 100 1015.5
20260507062113 10 302 0.0 1.6 0.00 0.00 0.00 100 1015.5
20260507062013 10 302 0.0 1.6 0.00 0.00 0.00 100 1015.5
20260507061912 10 302 0.0 1.6 0.00 0.00 0.00 100 1015.4
20260507061811 10 302 0.0 1.6 0.00 0.00 0.00 100 1015.5
20260507061712 10 302 0.0 3.2 0.00 0.00 0.00 100 1015.4
20260507061613 10 302 0.0 3.2 0.00 0.00 0.00 100 1015.4
20260507061513 10 302 0.0 3.2 0.00 0.00 0.00 100 1015.5
20260507061413 10 302 0.0 3.2 0.00 0.00 0.00 100 1015.4
20260507061313 10 302 1.6 3.2 0.00 0.00 0.00 100 1015.4
20260507061213 10 302 1.6 3.2 0.00 0.00 0.00 100 1015.4
20260507061112 10 302 0.0 1.6 0.00 0.00 0.00 100 1015.4
20260507061012 10 302 0.0 1.6 0.00 0.00 0.00 100 1015.4
20260507060912 10 302 1.6 1.6 0.00 0.00 0.00 100 1015.4
20260507060812 10 302 1.6 1.6 0.00 0.00 0.00 100 1015.4
20260507060712 10 302 0.0 1.6 0.00 0.00 0.00 100 1015.4
20260507060612 10 302 0.0 1.6 0.00 0.00 0.00 100 1015.4
20260507060512 10 302 1.6 1.6 0.00 0.00 0.00 100 1015.4
20260507060412 10 302 0.0 1.6 0.00 0.00 0.00 100 1015.3
20260507060312 10 302 0.0 1.6 0.00 0.00 0.00 100 1015.3
20260507060212 10 302 1.6 3.2 0.00 0.00 0.00 100 1015.3
20260507060112 10 302 1.6 3.2 0.00 0.00 0.00 100 1015.3
20260507060012 10 302 0.0 3.2 0.00 0.00 0.00 100 1015.3
20260507055912 10 302 0.0 1.6 0.00 0.00 0.00 100 1015.3
20260507055812 10 302 0.0 0.0 0.00 0.00 0.00 100 1015.3
20260507055712 10 302 0.0 1.6 0.00 0.00 0.00 100 1015.2
20260507055612 10 302 0.0 1.6 0.00 0.00 0.00 100 1015.2
20260507055512 10 302 1.6 1.6 0.00 0.00 0.00 100 1015.2
20260507055411 9 302 0.0 1.6 0.00 0.00 0.00 100 1015.2
20260507055311 9 302 0.0 1.6 0.00 0.00 0.00 100 1015.2
20260507055211 9 302 1.6 3.2 0.00 0.00 0.00 100 1015.2
20260507055112 9 302 1.6 3.2 0.00 0.00 0.00 100 1015.2
20260507055012 9 302 1.6 3.2 0.00 0.00 0.00 100 1015.1
20260507054912 9 302 3.2 3.2 0.00 0.00 0.00 100 1015.2
20260507054813 9 302 1.6 3.2 0.00 0.00 0.00 100 1015.1
20260507054713 9 302 1.6 1.6 0.00 0.00 0.00 100 1015.1
20260507054613 9 302 0.0 0.0 0.00 0.00 0.00 100 1015.2
20260507054513 9 302 0.0 0.0 0.00 0.00 0.00 100 1015.1
20260507054413 9 302 0.0 0.0 0.00 0.00 0.00 100 1015.1
20260507054312 9 302 0.0 0.0 0.00 0.00 0.00 100 1015.2
20260507054212 9 302 0.0 1.6 0.00 0.00 0.00 100 1015.2
20260507054113 9 302 0.0 1.6 0.00 0.00 0.00 100 1015.2
20260507054013 9 302 0.0 1.6 0.00 0.00 0.00 100 1015.2
20260507053913 9 302 1.6 1.6 0.00 0.00 0.00 100 1015.1
20260507053812 9 302 0.0 1.6 0.00 0.00 0.00 100 1015.2
20260507053712 9 302 1.6 3.2 0.00 0.00 0.00 100 1015.1
20260507053611 9 302 0.0 3.2 0.00 0.00 0.00 100 1015.1
20260507053511 9 302 0.0 3.2 0.00 0.00 0.00 100 1015.1
20260507053411 9 302 1.6 3.2 0.00 0.00 0.00 100 1015.1
20260507053311 9 302 0.0 3.2 0.00 0.00 0.00 100 1015.1
20260507053211 9 302 1.6 1.6 0.00 0.00 0.00 100 1015.1
20260507053113 9 302 1.6 1.6 0.00 0.00 0.00 100 1015.1
20260507053013 9 302 0.0 0.0 0.00 0.00 0.00 100 1015.1
20260507052912 9 302 0.0 0.0 0.00 0.00 0.00 100 1015.1
20260507052812 9 302 0.0 0.0 0.00 0.00 0.00 100 1015.0
20260507052712 9 302 0.0 1.6 0.00 0.00 0.00 100 1015.1
20260507052612 9 302 0.0 1.6 0.00 0.00 0.00 100 1015.1
20260507052513 9 302 1.6 1.6 0.00 0.00 0.00 100 1015.1
20260507052411 9 302 0.0 1.6 0.00 0.00 0.00 100 1015.0
20260507052311 9 302 0.0 1.6 0.00 0.00 0.00 100 1015.1
20260507052213 9 302 1.6 1.6 0.00 0.00 0.00 100 1015.1
20260507052113 9 302 1.6 1.6 0.00 0.00 0.00 100 1015.1
20260507052013 9 302 0.0 0.0 0.00 0.00 0.00 100 1015.1
20260507051913 9 302 0.0 0.0 0.00 0.00 0.00 100 1015.1
20260507051813 9 302 0.0 0.0 0.00 0.00 0.00 100 1015.1
20260507051713 9 302 0.0 1.6 0.00 0.00 0.00 100 1015.1
20260507051612 9 302 0.0 1.6 0.00 0.00 0.00 100 1015.1
20260507051512 9 302 0.0 0.0 0.00 0.00 0.00 100 1015.1
20260507051412 9 302 0.0 0.0 0.00 0.00 0.00 100 1015.1
20260507051311 9 302 0.0 0.0 0.00 0.00 0.00 100 1015.0
20260507051211 9 302 0.0 1.6 0.00 0.00 0.00 100 1015.1
20260507051111 9 302 0.0 1.6 0.00 0.00 0.00 100 1015.1
20260507051011 9 302 0.0 1.6 0.00 0.00 0.00 100 1015.1
20260507050911 9 302 0.0 1.6 0.00 0.00 0.00 100 1015.1
20260507050812 9 302 1.6 1.6 0.00 0.00 0.00 100 1015.1
20260507050712 9 302 1.6 1.6 0.00 0.00 0.00 100 1015.0
20260507050612 9 302 0.0 1.6 0.00 0.00 0.00 100 1015.0
20260507050512 9 302 0.0 1.6 0.00 0.00 0.00 100 1015.0
20260507050413 9 302 0.0 0.0 0.00 0.00 0.00 100 1015.0
20260507050313 9 302 0.0 0.0 0.00 0.00 0.00 100 1015.1
20260507050213 9 302 0.0 1.6 0.00 0.00 0.00 100 1015.0
20260507050112 9 302 0.0 1.6 0.00 0.00 0.00 100 1015.0
20260507050012 9 302 0.0 0.0 0.00 0.00 0.00 100 1015.0
20260507045912 9 302 0.0 0.0 0.00 0.00 0.00 100 1015.0
20260507045812 9 302 0.0 0.0 0.00 0.00 0.00 100 1015.0
20260507045712 9 302 0.0 0.0 0.00 0.00 0.00 100 1015.0
20260507045612 9 302 0.0 0.0 0.00 0.00 0.00 100 1015.0
20260507045512 9 302 0.0 0.0 0.00 0.00 0.00 100 1015.0
20260507045413 9 302 0.0 0.0 0.00 0.00 0.00 100 1014.9
20260507045313 9 302 0.0 0.0 0.00 0.00 0.00 100 1014.9
20260507045213 9 302 0.0 0.0 0.00 0.00 0.00 100 1014.9
20260507045113 9 302 0.0 0.0 0.00 0.00 0.00 100 1014.9
20260507045013 9 302 0.0 0.0 0.00 0.00 0.00 100 1014.9
20260507044913 9 302 0.0 0.0 0.00 0.00 0.00 100 1014.9
20260507044813 9 302 0.0 0.0 0.00 0.00 0.00 100 1014.9
20260507044713 9 302 0.0 0.0 0.00 0.00 0.00 100 1014.9
20260507044612 9 302 0.0 0.0 0.00 0.00 0.00 100 1014.9
20260507044512 9 302 0.0 0.0 0.00 0.00 0.00 100 1014.9
20260507044412 9 302 0.0 0.0 0.00 0.00 0.00 100 1014.9
20260507044312 9 302 0.0 0.0 0.00 0.00 0.00 100 1014.9
20260507044212 9 302 0.0 0.0 0.00 0.00 0.00 100 1014.9
20260507044113 9 302 0.0 0.0 0.00 0.00 0.00 100 1014.9
20260507044013 9 302 0.0 0.0 0.00 0.00 0.00 100 1014.9
20260507043913 9 302 0.0 0.0 0.00 0.00 0.00 100 1014.9
20260507043813 9 302 0.0 0.0 0.00 0.00 0.00 100 1014.8
20260507043713 9 302 0.0 0.0 0.00 0.00 0.00 100 1014.8
20260507043612 9 302 0.0 0.0 0.00 0.00 0.00 100 1014.8
20260507043512 9 302 0.0 0.0 0.00 0.00 0.00 100 1014.9
20260507043412 9 302 0.0 0.0 0.00 0.00 0.00 100 1014.9
20260507043312 9 302 0.0 0.0 0.00 0.00 0.00 100 1014.9
20260507043212 9 302 0.0 0.0 0.00 0.00 0.00 100 1014.8
20260507043111 9 302 0.0 0.0 0.00 0.00 0.00 100 1014.8
20260507043011 9 302 0.0 0.0 0.00 0.00 0.00 100 1014.8
20260507042911 9 302 0.0 0.0 0.00 0.00 0.00 100 1014.8
20260507042812 9 302 0.0 0.0 0.00 0.00 0.00 100 1014.8
20260507042712 9 302 0.0 0.0 0.00 0.00 0.00 100 1014.8
20260507042612 9 302 0.0 0.0 0.00 0.00 0.00 100 1014.8
20260507042512 9 302 0.0 0.0 0.00 0.00 0.00 100 1014.8
20260507042412 9 302 0.0 0.0 0.00 0.00 0.00 100 1014.8
20260507042312 9 302 0.0 0.0 0.00 0.00 0.00 100 1014.9
20260507042212 9 302 0.0 0.0 0.00 0.00 0.00 100 1014.9
20260507042112 9 302 0.0 0.0 0.00 0.00 0.00 100 1014.8
20260507042012 9 302 0.0 0.0 0.00 0.00 0.00 100 1014.8
20260507041913 9 302 0.0 0.0 0.00 0.00 0.00 100 1014.8
20260507041813 9 302 0.0 0.0 0.00 0.00 0.00 100 1014.8
20260507041713 9 302 0.0 0.0 0.00 0.00 0.00 100 1014.8
20260507041612 9 302 0.0 0.0 0.00 0.00 0.00 100 1014.8
20260507041512 9 302 0.0 0.0 0.00 0.00 0.00 100 1014.8
20260507041412 9 302 0.0 0.0 0.00 0.00 0.00 100 1014.7
20260507041312 9 302 0.0 0.0 0.00 0.00 0.00 100 1014.7
20260507041212 9 302 0.0 0.0 0.00 0.00 0.00 100 1014.7
20260507041111 9 302 0.0 0.0 0.00 0.00 0.00 100 1014.7
20260507041011 9 302 0.0 0.0 0.00 0.00 0.00 100 1014.7
20260507040913 9 302 0.0 0.0 0.00 0.00 0.00 100 1014.7
20260507040813 9 302 0.0 0.0 0.00 0.00 0.00 100 1014.7
20260507040712 9 302 0.0 0.0 0.00 0.00 0.00 100 1014.7
20260507040611 9 302 0.0 0.0 0.00 0.00 0.00 100 1014.7
20260507040511 9 302 0.0 0.0 0.00 0.00 0.00 100 1014.7
20260507040411 9 302 0.0 0.0 0.00 0.00 0.00 100 1014.7
20260507040311 9 302 0.0 0.0 0.00 0.00 0.00 100 1014.7
20260507040211 9 302 0.0 0.0 0.00 0.00 0.00 100 1014.7
20260507040113 9 302 0.0 0.0 0.00 0.00 0.00 100 1014.7
20260507040013 9 302 0.0 0.0 0.00 0.00 0.00 100 1014.7
20260507035913 9 302 0.0 0.0 0.00 0.00 0.00 100 1014.7
20260507035813 9 302 0.0 0.0 0.00 0.00 0.00 100 1014.7
20260507035712 9 302 0.0 0.0 0.00 0.00 0.00 100 1014.7
20260507035612 9 302 0.0 0.0 0.00 0.00 0.00 100 1014.7
20260507035512 9 302 0.0 0.0 0.00 0.00 0.00 100 1014.7
20260507035412 9 302 0.0 0.0 0.00 0.00 0.00 100 1014.7
20260507035312 9 302 0.0 0.0 0.00 0.00 0.00 100 1014.7
20260507035212 9 302 0.0 1.6 0.00 0.00 0.00 100 1014.7
20260507035112 9 302 0.0 1.6 0.00 0.00 0.00 100 1014.7
20260507035013 9 302 0.0 1.6 0.00 0.00 0.00 100 1014.7
20260507034913 9 302 1.6 1.6 0.00 0.00 0.00 100 1014.7
20260507034813 9 302 0.0 1.6 0.00 0.00 0.00 100 1014.7
20260507034713 9 302 0.0 1.6 0.00 0.00 0.00 100 1014.7
20260507034613 9 302 0.0 1.6 0.00 0.00 0.00 100 1014.7
20260507034513 9 302 0.0 1.6 0.00 0.00 0.00 100 1014.7
20260507034413 9 302 1.6 1.6 0.00 0.00 0.00 100 1014.7
20260507034312 9 302 0.0 0.0 0.00 0.00 0.00 100 1014.7
20260507034212 9 302 0.0 0.0 0.00 0.00 0.00 100 1014.7
20260507034112 9 302 0.0 0.0 0.00 0.00 0.00 100 1014.6
20260507034011 9 302 0.0 0.0 0.00 0.00 0.00 100 1014.7
20260507033911 9 302 0.0 0.0 0.00 0.00 0.00 100 1014.6
20260507033811 9 302 0.0 0.0 0.00 0.00 0.00 100 1014.6
20260507033711 9 302 0.0 1.6 0.00 0.00 0.00 100 1014.7
20260507033613 9 302 0.0 1.6 0.00 0.00 0.00 100 1014.7
20260507033513 9 302 0.0 1.6 0.00 0.00 0.00 100 1014.6
20260507033413 9 302 0.0 1.6 0.00 0.00 0.00 100 1014.6
20260507033312 9 302 0.0 1.6 0.00 0.00 0.00 100 1014.6
20260507033212 9 302 0.0 1.6 0.00 0.00 0.00 100 1014.7
20260507033112 9 302 0.0 1.6 0.00 0.00 0.00 100 1014.6
20260507033012 9 302 1.6 1.6 0.00 0.00 0.00 100 1014.7
20260507032912 9 302 1.6 1.6 0.00 0.00 0.00 100 1014.6
20260507032812 9 302 1.6 1.6 0.00 0.00 0.00 100 1014.6
20260507032712 9 302 0.0 3.2 0.00 0.00 0.00 100 1014.6
20260507032612 9 302 1.6 3.2 0.00 0.00 0.00 100 1014.6
20260507032511 9 302 1.6 3.2 0.00 0.00 0.00 100 1014.6
20260507032411 9 302 1.6 1.6 0.00 0.00 0.00 100 1014.6
20260507032311 9 302 1.6 1.6 0.00 0.00 0.00 100 1014.6
20260507032212 9 302 0.0 1.6 0.00 0.00 0.00 100 1014.6
20260507032111 9 302 0.0 1.6 0.00 0.00 0.00 100 1014.6
20260507032011 9 302 0.0 1.6 0.00 0.00 0.00 100 1014.6
20260507031913 9 302 0.0 1.6 0.00 0.00 0.00 100 1014.6
20260507031813 9 302 0.0 0.0 0.00 0.00 0.00 100 1014.7
20260507031712 9 302 0.0 0.0 0.00 0.00 0.00 100 1014.6
20260507031612 9 302 0.0 0.0 0.00 0.00 0.00 100 1014.7
20260507031512 9 302 0.0 0.0 0.00 0.00 0.00 100 1014.7
20260507031411 9 302 0.0 0.0 0.00 0.00 0.00 100 1014.6
20260507031311 9 302 0.0 0.0 0.00 0.00 0.00 100 1014.6
20260507031211 9 302 0.0 0.0 0.00 0.00 0.00 100 1014.6
20260507031111 9 302 0.0 0.0 0.00 0.00 0.00 100 1014.6
20260507031011 9 302 0.0 0.0 0.00 0.00 0.00 100 1014.6
20260507030911 9 302 0.0 0.0 0.00 0.00 0.00 100 1014.6
20260507030813 10 302 0.0 0.0 0.00 0.00 0.00 100 1014.6
20260507030713 10 302 0.0 0.0 0.00 0.00 0.00 100 1014.6
20260507030613 10 302 0.0 0.0 0.00 0.00 0.00 100 1014.7
20260507030512 10 302 0.0 0.0 0.00 0.00 0.00 100 1014.6
20260507030412 10 302 0.0 0.0 0.00 0.00 0.00 100 1014.6
20260507030312 10 302 0.0 0.0 0.00 0.00 0.00 100 1014.6
20260507030213 10 302 0.0 0.0 0.00 0.00 0.00 100 1014.6
20260507030112 10 302 0.0 0.0 0.00 0.00 0.00 100 1014.6
20260507030013 10 302 0.0 0.0 0.00 0.00 0.00 100 1014.6
20260507025912 10 302 0.0 0.0 0.00 0.00 0.00 100 1014.6
20260507025811 10 302 0.0 0.0 0.00 0.00 0.00 100 1014.6
20260507025711 10 302 0.0 1.6 0.00 0.00 0.00 100 1014.6
20260507025611 10 302 0.0 1.6 0.00 0.00 0.00 100 1014.6
20260507025511 10 302 0.0 1.6 0.00 0.00 0.00 100 1014.5
20260507025411 10 302 0.0 0.0 0.00 0.00 0.00 100 1014.5
20260507025313 10 302 0.0 0.0 0.00 0.00 0.00 100 1014.6
20260507025213 10 302 0.0 0.0 0.00 0.00 0.00 100 1014.5
20260507025113 10 302 0.0 0.0 0.00 0.00 0.00 100 1014.5
20260507025013 10 302 0.0 0.0 0.00 0.00 0.00 100 1014.5
20260507024913 10 302 0.0 0.0 0.00 0.00 0.00 100 1014.5
20260507024813 10 302 0.0 0.0 0.00 0.00 0.00 100 1014.5
20260507024712 10 302 0.0 0.0 0.00 0.00 0.00 100 1014.5
20260507024613 10 302 0.0 0.0 0.00 0.00 0.00 100 1014.5
20260507024512 10 302 0.0 0.0 0.00 0.00 0.00 100 1014.4
20260507024412 10 302 0.0 0.0 0.00 0.00 0.00 100 1014.4
20260507024312 10 302 0.0 0.0 0.00 0.00 0.00 100 1014.4
20260507024212 10 302 0.0 1.6 0.00 0.00 0.00 100 1014.4
20260507024112 10 302 0.0 1.6 0.00 0.00 0.00 100 1014.4
20260507024012 10 302 0.0 1.6 0.00 0.00 0.00 100 1014.4
20260507023912 10 302 0.0 1.6 0.00 0.00 0.00 100 1014.4
20260507023812 10 302 1.6 1.6 0.00 0.00 0.00 100 1014.4
20260507023712 10 302 0.0 1.6 0.00 0.00 0.00 100 1014.4
20260507023612 10 302 0.0 1.6 0.00 0.00 0.00 100 1014.4
20260507023513 10 302 0.0 1.6 0.00 0.00 0.00 100 1014.4
20260507023413 10 302 0.0 1.6 0.00 0.00 0.00 100 1014.4
20260507023313 10 302 0.0 1.6 0.00 0.00 0.00 100 1014.3
20260507023212 10 302 0.0 1.6 0.00 0.00 0.00 100 1014.4
20260507023112 10 302 0.0 1.6 0.00 0.00 0.00 100 1014.4
20260507023012 10 302 0.0 0.0 0.00 0.00 0.00 100 1014.4
20260507022912 10 302 0.0 0.0 0.00 0.00 0.00 100 1014.3
20260507022812 10 302 0.0 0.0 0.00 0.00 0.00 100 1014.3
20260507022712 10 302 0.0 0.0 0.00 0.00 0.00 100 1014.4
20260507022612 10 302 0.0 0.0 0.00 0.00 0.00 100 1014.4
20260507022512 10 302 0.0 0.0 0.00 0.00 0.00 100 1014.4
20260507022412 10 302 0.0 0.0 0.00 0.00 0.00 100 1014.4
20260507022313 10 302 0.0 0.0 0.00 0.00 0.00 100 1014.3
20260507022213 10 302 0.0 0.0 0.00 0.00 0.00 100 1014.3
20260507022113 10 302 0.0 0.0 0.00 0.00 0.00 100 1014.4
20260507022013 10 302 0.0 0.0 0.00 0.00 0.00 100 1014.3
20260507021913 10 302 0.0 0.0 0.00 0.00 0.00 100 1014.3
20260507021813 10 302 0.0 0.0 0.00 0.00 0.00 100 1014.3
20260507021713 10 302 0.0 0.0 0.00 0.00 0.00 100 1014.3
20260507021612 10 302 0.0 0.0 0.00 0.00 0.00 100 1014.3
20260507021512 10 302 0.0 0.0 0.00 0.00 0.00 100 1014.3
20260507021412 10 302 0.0 0.0 0.00 0.00 0.00 100 1014.3
20260507021312 10 302 0.0 0.0 0.00 0.00 0.00 100 1014.3
20260507021212 10 302 0.0 1.6 0.00 0.00 0.00 100 1014.3
20260507021112 10 302 0.0 1.6 0.00 0.00 0.00 100 1014.3
20260507021012 10 302 0.0 1.6 0.00 0.00 0.00 100 1014.3
20260507020912 10 302 0.0 1.6 0.00 0.00 0.00 100 1014.3
20260507020812 10 302 0.0 0.0 0.00 0.00 0.00 100 1014.3
20260507020712 10 302 0.0 3.2 0.00 0.00 0.00 100 1014.3
20260507020612 10 302 1.6 3.2 0.00 0.00 0.00 100 1014.3
20260507020512 10 302 1.6 3.2 0.00 0.00 0.00 100 1014.3
20260507020411 10 302 0.0 3.2 0.00 0.00 0.00 100 1014.3
20260507020311 10 302 0.0 3.2 0.00 0.00 0.00 100 1014.3
20260507020211 10 302 1.6 1.6 0.00 0.00 0.00 100 1014.3
20260507020113 10 302 0.0 0.0 0.00 0.00 0.00 100 1014.3
20260507020013 10 302 0.0 0.0 0.00 0.00 0.00 100 1014.3
20260507015911 10 302 0.0 0.0 0.00 0.00 0.00 100 1014.3
20260507015811 10 302 0.0 0.0 0.00 0.00 0.00 100 1014.3
20260507015711 10 302 0.0 1.6 0.00 0.00 0.00 100 1014.3
20260507015611 10 302 1.6 1.6 0.00 0.00 0.00 100 1014.3
20260507015511 10 302 1.6 1.6 0.00 0.00 0.00 100 1014.3
20260507015413 10 302 0.0 1.6 0.00 0.00 0.00 100 1014.3
20260507015313 10 302 0.0 1.6 0.00 0.00 0.00 100 1014.3
20260507015213 10 302 0.0 0.0 0.00 0.00 0.00 100 1014.3
20260507015113 10 302 0.0 0.0 0.00 0.00 0.00 100 1014.3
20260507015013 10 302 0.0 0.0 0.00 0.00 0.00 100 1014.2
20260507014913 10 302 0.0 0.0 0.00 0.00 0.00 100 1014.3
20260507014813 10 302 0.0 0.0 0.00 0.00 0.00 100 1014.2
20260507014713 10 302 0.0 0.0 0.00 0.00 0.00 100 1014.2
20260507014613 10 302 0.0 0.0 0.00 0.00 0.00 100 1014.2
20260507014512 10 302 0.0 0.0 0.00 0.00 0.00 100 1014.2
20260507014412 10 302 0.0 0.0 0.00 0.00 0.00 100 1014.3
20260507014312 10 302 0.0 0.0 0.00 0.00 0.00 100 1014.3
20260507014212 10 302 0.0 0.0 0.00 0.00 0.00 100 1014.3
20260507014112 10 302 0.0 0.0 0.00 0.00 0.00 100 1014.2
20260507014012 10 302 0.0 0.0 0.00 0.00 0.00 100 1014.2
20260507013912 10 302 0.0 0.0 0.00 0.00 0.00 100 1014.2
20260507013812 10 302 0.0 0.0 0.00 0.00 0.00 100 1014.3
20260507013712 10 302 0.0 0.0 0.00 0.00 0.00 100 1014.2
20260507013612 10 302 0.0 0.0 0.00 0.00 0.00 100 1014.2
20260507013512 10 302 0.0 0.0 0.00 0.00 0.00 100 1014.2
20260507013412 10 302 0.0 0.0 0.00 0.00 0.00 100 1014.2
20260507013312 10 302 0.0 0.0 0.00 0.00 0.00 100 1014.2
20260507013211 10 302 1.6 1.6 0.00 0.00 0.00 100 1014.3
20260507013113 10 302 0.0 1.6 0.00 0.00 0.00 100 1014.3
20260507013013 10 302 0.0 1.6 0.00 0.00 0.00 100 1014.3
20260507012913 10 302 0.0 1.6 0.00 0.00 0.00 100 1014.3
20260507012813 10 302 1.6 1.6 0.00 0.00 0.00 100 1014.3
20260507012713 10 302 0.0 1.6 0.00 0.00 0.00 100 1014.3
20260507012613 10 302 0.0 1.6 0.00 0.00 0.00 100 1014.3
20260507012513 10 302 0.0 1.6 0.00 0.00 0.00 100 1014.3
20260507012413 10 302 1.6 1.6 0.00 0.00 0.00 100 1014.3
20260507012313 10 302 0.0 1.6 0.00 0.00 0.00 100 1014.3
20260507012213 10 302 0.0 1.6 0.00 0.00 0.00 100 1014.3
20260507012113 10 302 0.0 1.6 0.00 0.00 0.00 100 1014.3
20260507012013 10 302 0.0 1.6 0.00 0.00 0.00 100 1014.3
20260507011912 10 302 0.0 1.6 0.00 0.00 0.00 100 1014.3
20260507011810 10 302 1.6 1.6 0.00 0.00 0.00 100 1014.3
20260507011710 10 302 0.0 3.2 0.00 0.00 0.00 100 1014.3
20260507011612 10 302 1.6 3.2 0.00 0.00 0.00 100 1014.3
20260507011212 10 302 0.0 3.2 0.00 0.00 0.00 100 1014.3
20260507011126 10 302 1.6 3.2 0.00 0.00 0.00 100 1014.3
20260507011026 10 302 0.0 3.2 0.00 0.00 0.00 100 1014.3
20260507010926 10 302 0.0 3.2 0.00 0.00 0.00 100 1014.3
20260507010826 10 302 3.2 3.2 0.00 0.00 0.00 100 1014.3
20260507010712 10 302 1.6 3.2 0.00 0.00 0.00 100 1014.3
20260507010626 10 302 1.6 3.2 0.00 0.00 0.00 100 1014.3
20260507010526 10 295 1.6 1.6 0.00 0.00 0.00 100 1014.3
20260507010425 10 295 0.0 1.6 0.00 0.00 0.00 100 1014.3
20260507010327 10 295 0.0 0.0 0.00 0.00 0.00 100 1014.3
20260507010213 10 295 0.0 0.0 0.00 0.00 0.00 100 1014.4
20260507010126 10 295 0.0 0.0 0.00 0.00 0.00 100 1014.3
20260507010026 10 295 0.0 0.0 0.00 0.00 0.00 100 1014.4
20260507005925 10 295 0.0 0.0 0.00 0.00 0.00 100 1014.3
20260507005825 10 295 0.0 0.0 0.00 0.00 0.00 100 1014.4
20260507005713 10 295 0.0 1.6 0.00 0.00 0.00 100 1014.4
20260507005627 10 295 0.0 1.6 0.00 0.00 0.00 100 1014.3
20260507005527 10 295 0.0 1.6 0.00 0.00 0.00 100 1014.4
20260507005427 10 295 1.6 1.6 0.00 0.00 0.00 100 1014.4
20260507005327 10 295 0.0 1.6 0.00 0.00 0.00 100 1014.3
20260507005213 10 295 1.6 1.6 0.00 0.00 0.00 100 1014.3
20260507005126 10 295 0.0 1.6 0.00 0.00 0.00 100 1014.3
20260507005025 10 295 0.0 0.0 0.00 0.00 0.00 100 1014.3
20260507004925 10 295 0.0 0.0 0.00 0.00 0.00 100 1014.3
20260507004825 10 295 0.0 0.0 0.00 0.00 0.00 100 1014.3
20260507004711 10 295 0.0 0.0 0.00 0.00 0.00 100 1014.3
20260507004625 10 295 0.0 0.0 0.00 0.00 0.00 100 1014.3
20260507004525 10 295 0.0 0.0 0.00 0.00 0.00 100 1014.3
20260507004425 10 295 0.0 0.0 0.00 0.00 0.00 100 1014.3
20260507004326 10 295 0.0 0.0 0.00 0.00 0.00 100 1014.3
20260507004212 10 295 0.0 1.6 0.00 0.00 0.00 100 1014.3
20260507004125 10 295 0.0 1.6 0.00 0.00 0.00 100 1014.3
20260507004025 10 295 0.0 1.6 0.00 0.00 0.00 100 1014.3
20260507003926 10 295 0.0 0.0 0.00 0.00 0.00 100 1014.3
20260507003826 10 295 0.0 0.0 0.00 0.00 0.00 100 1014.3
20260507003712 10 295 0.0 0.0 0.00 0.00 0.00 100 1014.3
20260507003626 10 295 0.0 0.0 0.00 0.00 0.00 100 1014.3
20260507003526 10 295 0.0 0.0 0.00 0.00 0.00 100 1014.3
20260507003426 10 295 0.0 0.0 0.00 0.00 0.00 100 1014.3
20260507003326 10 295 0.0 0.0 0.00 0.00 0.00 100 1014.4
20260507003212 10 295 0.0 0.0 0.00 0.00 0.00 100 1014.4
20260507003126 10 295 0.0 0.0 0.00 0.00 0.00 100 1014.3
20260507003026 10 295 0.0 0.0 0.00 0.00 0.00 100 1014.3
20260507002926 10 295 0.0 0.0 0.00 0.00 0.00 100 1014.4
20260507002826 10 295 0.0 0.0 0.00 0.00 0.00 100 1014.4
20260507002712 10 295 0.0 0.0 0.00 0.00 0.00 100 1014.3
20260507002626 10 295 0.0 0.0 0.00 0.00 0.00 100 1014.3
20260507002526 10 295 0.0 0.0 0.00 0.00 0.00 100 1014.3
20260507002426 10 295 0.0 0.0 0.00 0.00 0.00 100 1014.3
20260507002325 10 295 0.0 0.0 0.00 0.00 0.00 100 1014.3
20260507002211 10 295 0.0 0.0 0.00 0.00 0.00 100 1014.3
20260507002125 10 295 0.0 0.0 0.00 0.00 0.00 100 1014.3
20260507002027 10 295 0.0 0.0 0.00 0.00 0.00 100 1014.3
20260507001927 10 295 0.0 0.0 0.00 0.00 0.00 100 1014.3
20260507001827 10 295 0.0 0.0 0.00 0.00 0.00 100 1014.3
20260507001713 10 295 1.6 1.6 0.00 0.00 0.00 100 1014.3
20260507001626 10 295 1.6 1.6 0.00 0.00 0.00 100 1014.3
20260507001526 10 295 1.6 1.6 0.00 0.00 0.00 100 1014.3
20260507001426 10 295 0.0 0.0 0.00 0.00 0.00 100 1014.3
20260507001325 10 295 0.0 0.0 0.00 0.00 0.00 100 1014.3
20260507001211 10 295 0.0 0.0 0.00 0.00 0.00 100 1014.3
20260507001125 10 295 0.0 0.0 0.00 0.00 0.00 100 1014.3
20260507001025 10 295 0.0 0.0 0.00 0.00 0.00 100 1014.3
20260507000925 10 295 0.0 0.0 0.00 0.00 0.00 100 1014.3
20260507000825 10 295 0.0 0.0 0.00 0.00 0.00 100 1014.3
20260507000712 10 295 0.0 1.6 0.00 0.00 0.00 100 1014.3
20260507000626 10 295 0.0 1.6 0.00 0.00 0.00 100 1014.3
20260507000526 10 295 0.0 1.6 0.00 0.00 0.00 100 1014.3
20260507000427 10 295 0.0 1.6 0.00 0.00 0.00 100 1014.3
20260507000328 10 295 0.0 0.0 0.00 0.00 0.00 100 1014.3
20260507000212 10 295 0.0 0.0 0.00 0.00 0.00 100 1014.3
20260507000126 10 295 0.0 0.0 0.00 0.00 0.00 100 1014.3
20260507000026 10 295 0.0 0.0 0.00 0.00 0.00 100 1014.4
20260506235926 10 295 0.0 0.0 0.00 0.00 0.00 100 1014.4
20260506235825 10 295 0.0 0.0 0.00 0.00 0.00 100 1014.4
20260506235711 10 295 0.0 1.6 0.00 0.00 0.00 100 1014.4
20260506235626 10 295 0.0 1.6 0.00 0.00 0.00 100 1014.4
20260506235526 10 295 0.0 1.6 0.00 0.00 0.00 100 1014.4
20260506235426 10 295 0.0 1.6 0.00 0.00 0.00 100 1014.4
20260506235326 10 295 1.6 1.6 0.00 0.00 0.00 100 1014.4
20260506235211 10 295 0.0 3.2 0.00 0.00 0.00 100 1014.3
20260506235125 10 295 0.0 0.0 0.00 0.00 0.00 100 1014.3
20260506235025 10 295 0.0 0.0 0.00 0.00 0.00 100 1014.3
20260506234925 10 295 0.0 0.0 0.00 0.00 0.00 100 1014.4
20260506234825 10 295 0.0 0.0 0.00 0.00 0.00 100 1014.4
20260506234712 10 295 0.0 1.6 0.00 0.00 0.00 100 1014.4
20260506234626 10 295 0.0 1.6 0.00 0.00 0.00 100 1014.4
20260506234526 10 295 0.0 1.6 0.00 0.00 0.00 100 1014.4
20260506234426 10 295 0.0 1.6 0.00 0.00 0.00 100 1014.3
20260506234326 10 295 0.0 1.6 0.00 0.00 0.00 100 1014.3
20260506234212 10 292 0.0 1.6 0.00 0.00 0.00 100 1014.3
20260506234126 10 292 1.6 1.6 0.00 0.00 0.00 100 1014.3
20260506234026 10 292 1.6 1.6 0.00 0.00 0.00 100 1014.3
20260506233926 10 292 1.6 1.6 0.00 0.00 0.00 100 1014.3
20260506233826 10 292 1.6 1.6 0.00 0.00 0.00 100 1014.3
20260506233711 10 292 1.6 3.2 0.00 0.00 0.00 100 1014.3
20260506233625 10 292 1.6 3.2 0.00 0.00 0.00 100 1014.3
20260506233527 10 292 3.2 3.2 0.00 0.00 0.00 100 1014.3
20260506233427 10 292 1.6 1.6 0.00 0.00 0.00 100 1014.3
20260506233327 10 292 1.6 1.6 0.00 0.00 0.00 100 1014.3
20260506233213 10 292 3.2 3.2 0.00 0.00 0.00 100 1014.3
20260506233126 10 292 0.0 3.2 0.00 0.00 0.00 100 1014.3
20260506233025 10 292 1.6 1.6 0.00 0.00 0.00 100 1014.3
20260506232925 10 292 0.0 0.0 0.00 0.00 0.00 100 1014.3
20260506232825 10 292 0.0 0.0 0.00 0.00 0.00 100 1014.3
20260506232711 10 292 1.6 3.2 0.00 0.00 0.00 100 1014.3
20260506232625 10 292 1.6 3.2 0.00 0.00 0.00 100 1014.3
20260506232525 10 292 1.6 3.2 0.00 0.00 0.00 100 1014.3
20260506232425 10 292 1.6 3.2 0.00 0.00 0.00 100 1014.3
20260506232325 10 292 1.6 1.6 0.00 0.00 0.00 100 1014.4
20260506232211 10 292 1.6 1.6 0.00 0.00 0.00 100 1014.3
20260506232126 10 292 0.0 1.6 0.00 0.00 0.00 100 1014.3
20260506232026 10 292 1.6 1.6 0.00 0.00 0.00 100 1014.3
20260506231926 10 292 1.6 1.6 0.00 0.00 0.00 100 1014.3
20260506231826 10 292 0.0 0.0 0.00 0.00 0.00 100 1014.3
20260506231712 10 292 0.0 1.6 0.00 0.00 0.00 100 1014.3
20260506231625 10 292 0.0 1.6 0.00 0.00 0.00 100 1014.3
20260506231525 10 292 1.6 1.6 0.00 0.00 0.00 100 1014.3
20260506231425 10 292 0.0 1.6 0.00 0.00 0.00 100 1014.3
20260506231325 10 292 0.0 0.0 0.00 0.00 0.00 100 1014.3
20260506231211 10 292 1.6 1.6 0.00 0.00 0.00 100 1014.3
20260506231125 10 292 0.0 0.0 0.00 0.00 0.00 100 1014.2
20260506231026 10 292 0.0 0.0 0.00 0.00 0.00 100 1014.2
20260506230926 10 292 0.0 0.0 0.00 0.00 0.00 100 1014.2
20260506230826 10 292 0.0 0.0 0.00 0.00 0.00 100 1014.2
20260506230712 10 292 0.0 1.6 0.00 0.00 0.00 100 1014.2
20260506230625 10 292 0.0 1.6 0.00 0.00 0.00 100 1014.2
20260506230525 10 292 0.0 1.6 0.00 0.00 0.00 100 1014.2
20260506230425 10 292 0.0 1.6 0.00 0.00 0.00 100 1014.2
20260506230325 10 292 0.0 1.6 0.00 0.00 0.00 100 1014.2
20260506230213 10 292 0.0 1.6 0.00 0.00 0.00 100 1014.2
20260506230127 10 292 0.0 1.6 0.00 0.00 0.00 100 1014.2
20260506230026 10 292 0.0 1.6 0.00 0.00 0.00 100 1014.2
20260506225926 10 292 1.6 1.6 0.00 0.00 0.00 100 1014.2
20260506225826 10 292 1.6 1.6 0.00 0.00 0.00 100 1014.2
20260506225712 10 292 0.0 1.6 0.00 0.00 0.00 100 1014.2
20260506225626 10 292 0.0 1.6 0.00 0.00 0.00 100 1014.2
20260506225525 10 292 0.0 1.6 0.00 0.00 0.00 100 1014.2
20260506225425 10 292 0.0 1.6 0.00 0.00 0.00 100 1014.2
20260506225325 10 292 0.0 1.6 0.00 0.00 0.00 100 1014.2
20260506225213 10 292 0.0 1.6 0.00 0.00 0.00 100 1014.2
20260506225127 10 292 0.0 1.6 0.00 0.00 0.00 100 1014.2
20260506225026 10 292 1.6 1.6 0.00 0.00 0.00 100 1014.2
20260506224926 10 292 0.0 1.6 0.00 0.00 0.00 100 1014.2
20260506224826 10 292 0.0 1.6 0.00 0.00 0.00 100 1014.2
20260506224712 10 292 0.0 3.2 0.00 0.00 0.00 100 1014.2
20260506224625 10 292 3.2 3.2 0.00 0.00 0.00 100 1014.2
20260506224525 10 292 1.6 3.2 0.00 0.00 0.00 100 1014.2
20260506224425 10 294 1.6 3.2 0.00 0.00 0.00 100 1014.2
20260506224325 10 297 1.6 3.2 0.00 0.00 0.00 100 1014.2
20260506224211 10 297 1.6 3.2 0.00 0.00 0.00 100 1014.2
20260506224125 10 297 1.6 3.2 0.00 0.00 0.00 100 1014.2
20260506224025 10 311 0.0 3.2 0.00 0.00 0.00 100 1014.2
20260506223926 10 316 1.6 1.6 0.00 0.00 0.00 100 1014.2
20260506223826 10 316 1.6 1.6 0.00 0.00 0.00 100 1014.2
20260506223712 10 319 1.6 3.2 0.00 0.00 0.00 100 1014.2
20260506223626 10 325 1.6 1.6 0.00 0.00 0.00 100 1014.1
20260506223526 10 346 1.6 1.6 0.00 0.00 0.00 100 1014.2
20260506223427 10 346 1.6 1.6 0.00 0.00 0.00 100 1014.1
20260506223327 10 346 1.6 1.6 0.00 0.00 0.00 100 1014.2
20260506223213 10 346 0.0 1.6 0.00 0.00 0.00 100 1014.2
20260506223126 10 346 0.0 1.6 0.00 0.00 0.00 100 1014.1
20260506223026 10 346 0.0 1.6 0.00 0.00 0.00 100 1014.2
20260506222926 11 346 0.0 1.6 0.00 0.00 0.00 100 1014.1
20260506222826 11 346 0.0 1.6 0.00 0.00 0.00 100 1014.1
20260506222712 11 346 3.2 3.2 0.00 0.00 0.00 100 1014.1
20260506222626 11 346 0.0 0.0 0.00 0.00 0.00 100 1014.1
20260506222526 11 346 0.0 0.0 0.00 0.00 0.00 100 1014.1
20260506222426 11 346 0.0 0.0 0.00 0.00 0.00 100 1014.1
20260506222326 11 346 0.0 0.0 0.00 0.00 0.00 100 1014.1
20260506222212 11 346 0.0 1.6 0.00 0.00 0.00 100 1014.1
20260506221946 11 346 0.0 1.6 0.00 0.00 0.00 100 1014.0
20260506221846 11 346 0.0 0.0 0.00 0.00 0.00 100 1014.0
20260506221746 11 346 0.0 1.6 0.00 0.00 0.00 100 1014.1
20260506221712 11 346 0.0 1.6 0.00 0.00 0.00 100 1014.1
20260506221645 11 346 0.0 0.0 0.00 0.00 0.00 100 1014.1
20260506221545 11 346 0.0 0.0 0.00 0.00 0.00 100 1014.1
20260506221445 11 346 0.0 0.0 0.00 0.00 0.00 100 1014.1
20260506221345 11 346 0.0 0.0 0.00 0.00 0.00 100 1014.1
20260506221245 11 346 0.0 1.6 0.00 0.00 0.00 100 1014.0
20260506221213 11 346 0.0 1.6 0.00 0.00 0.00 100 1014.0
20260506221146 11 346 0.0 1.6 0.00 0.00 0.00 100 1014.1
20260506221046 11 346 0.0 0.0 0.00 0.00 0.00 100 1014.0
20260506220946 11 346 0.0 0.0 0.00 0.00 0.00 100 1014.0
20260506220846 11 346 0.0 0.0 0.00 0.00 0.00 100 1014.0
20260506220746 11 346 0.0 3.2 0.00 0.00 0.00 100 1014.0
20260506220712 11 346 0.0 3.2 0.00 0.00 0.00 100 1014.0
20260506220646 11 346 0.0 3.2 0.00 0.00 0.00 100 1014.1
20260506220545 11 346 0.0 3.2 0.00 0.00 0.00 100 1014.0
20260506220445 11 346 3.2 3.2 0.00 0.00 0.00 100 1014.0
20260506220344 11 360 0.0 0.0 0.00 0.00 0.00 100 1014.0
20260506220244 11 360 0.0 4.8 0.00 0.00 0.00 100 1014.0
20260506220212 11 360 0.0 4.8 0.00 0.00 0.00 100 1014.0
20260506220144 11 360 1.6 4.8 0.00 0.00 0.00 100 1014.0
20260506220045 11 360 1.6 4.8 0.00 0.00 0.00 100 1014.0
20260506215945 11 5 0.0 4.8 0.00 0.00 0.00 100 1014.0
20260506215845 11 341 3.2 4.8 0.00 0.00 0.00 100 1014.0
20260506215745 11 40 0.0 3.2 0.00 0.00 0.00 100 1014.0
20260506215713 11 40 0.0 3.2 0.00 0.00 0.00 100 1014.0
20260506215646 11 40 1.6 3.2 0.00 0.00 0.00 100 1014.0
20260506215546 11 40 0.0 3.2 0.00 0.00 0.00 100 1014.0
20260506215446 11 40 1.6 3.2 0.00 0.00 0.00 100 1014.0
20260506215346 11 40 1.6 3.2 0.00 0.00 0.00 100 1014.0
20260506215245 11 40 1.6 4.8 0.00 0.00 0.00 100 1014.0
20260506215211 11 40 1.6 4.8 0.00 0.00 0.00 100 1014.0
20260506215145 11 40 0.0 4.8 0.00 0.00 0.00 100 1013.9
20260506215045 11 40 0.0 4.8 0.00 0.00 0.00 100 1013.9
20260506214945 11 47 0.0 4.8 0.00 0.00 0.00 100 1013.9
20260506214845 11 47 1.6 1.6 0.00 0.00 0.00 100 1013.9
20260506214744 11 47 1.6 4.8 0.00 0.00 0.00 100 1013.9
20260506214712 11 47 1.6 4.8 0.00 0.00 0.00 100 1013.9
20260506214646 11 59 3.2 3.2 0.00 0.00 0.00 100 1013.9
20260506214546 11 74 1.6 3.2 0.00 0.00 0.00 100 1013.9
20260506214446 11 90 3.2 3.2 0.00 0.00 0.00 100 1014.0
20260506214346 11 46 1.6 3.2 0.00 0.00 0.00 100 1013.9
20260506214245 11 59 1.6 4.8 0.00 0.00 0.00 100 1013.9
20260506214211 11 59 1.6 4.8 0.00 0.00 0.00 100 1013.9
20260506214145 11 67 1.6 4.8 0.00 0.00 0.00 100 1013.9
20260506214045 11 67 1.6 4.8 0.00 0.00 0.00 100 1013.9
20260506213945 11 84 0.0 4.8 0.00 0.00 0.00 100 1013.9
20260506213844 11 84 4.8 4.8 0.00 0.00 0.00 100 1013.9
20260506213746 11 71 1.6 4.8 0.00 0.00 0.00 100 1013.9
20260506213712 11 71 1.6 4.8 0.00 0.00 0.00 100 1013.9
20260506213646 11 40 1.6 4.8 0.00 0.00 0.00 100 1013.9
20260506213546 11 71 3.2 4.8 0.00 0.00 0.00 100 1013.9
20260506213446 11 57 3.2 4.8 0.00 0.00 0.00 100 1013.9
20260506213345 11 56 1.6 1.6 0.00 0.00 0.00 100 1013.9
20260506213245 11 56 0.0 4.8 0.00 0.00 0.00 100 1013.9
20260506213212 11 56 0.0 4.8 0.00 0.00 0.00 100 1013.9
20260506213146 11 42 4.8 4.8 0.00 0.00 0.00 100 1013.9
20260506213046 11 51 4.8 4.8 0.00 0.00 0.00 100 1013.9
20260506212946 11 29 1.6 1.6 0.00 0.00 0.00 100 1013.9
20260506212846 11 29 0.0 1.6 0.00 0.00 0.00 100 1013.8
20260506212746 11 29 1.6 4.8 0.00 0.00 0.00 100 1013.8
20260506212711 11 29 1.6 4.8 0.00 0.00 0.00 100 1013.8
20260506212645 11 47 1.6 3.2 0.00 0.00 0.00 100 1013.9
20260506212545 11 46 0.0 3.2 0.00 0.00 0.00 100 1013.8
20260506212445 11 46 1.6 3.2 0.00 0.00 0.00 100 1013.8
20260506212345 11 46 0.0 3.2 0.00 0.00 0.00 100 1013.8
20260506212244 11 46 3.2 4.8 0.00 0.00 0.00 100 1013.8
20260506212212 11 46 3.2 4.8 0.00 0.00 0.00 100 1013.8
20260506212144 11 67 1.6 4.8 0.00 0.00 0.00 100 1013.8
20260506212046 11 67 1.6 4.8 0.00 0.00 0.00 100 1013.8
20260506211946 11 28 1.6 4.8 0.00 0.00 0.00 100 1013.8
20260506211846 11 42 4.8 4.8 0.00 0.00 0.00 100 1013.8
20260506211746 11 48 0.0 4.8 0.00 0.00 0.00 100 1013.8
20260506211712 11 48 0.0 4.8 0.00 0.00 0.00 100 1013.8
20260506211645 11 40 3.2 4.8 0.00 0.00 0.00 100 1013.8
20260506211546 11 40 1.6 4.8 0.00 0.00 0.00 100 1013.8
20260506211445 11 34 1.6 4.8 0.00 0.00 0.00 100 1013.8
20260506211344 11 41 3.2 4.8 0.00 0.00 0.00 100 1013.8
20260506211244 11 14 3.2 4.8 0.00 0.00 0.00 100 1013.8
20260506211212 11 14 3.2 4.8 0.00 0.00 0.00 100 1013.8
20260506211144 11 23 1.6 4.8 0.00 0.00 0.00 100 1013.8
20260506211044 11 5 1.6 4.8 0.00 0.00 0.00 100 1013.8
20260506210944 11 22 3.2 4.8 0.00 0.00 0.00 100 1013.8
20260506210845 11 13 4.8 4.8 0.00 0.00 0.00 100 1013.8
20260506210745 11 5 1.6 4.8 0.00 0.00 0.00 100 1013.8
20260506210711 11 5 1.6 4.8 0.00 0.00 0.00 100 1013.8
20260506210645 11 5 3.2 3.2 0.00 0.00 0.00 100 1013.7
20260506210545 11 27 1.6 3.2 0.00 0.00 0.00 100 1013.8
20260506210445 11 23 3.2 3.2 0.00 0.00 0.00 100 1013.7
20260506210345 11 30 3.2 3.2 0.00 0.00 0.00 100 1013.7
20260506210245 11 39 4.8 4.8 0.00 0.00 0.00 100 1013.7
20260506210213 11 39 4.8 4.8 0.00 0.00 0.00 100 1013.7
20260506210145 11 27 3.2 3.2 0.00 0.00 0.00 100 1013.7
20260506210045 11 20 1.6 3.2 0.00 0.00 0.00 100 1013.7
20260506205945 11 20 1.6 3.2 0.00 0.00 0.00 100 1013.7
20260506205845 11 26 0.0 0.0 0.00 0.00 0.00 100 1013.7
20260506205745 11 26 1.6 3.2 0.00 0.00 0.00 100 1013.7
20260506205711 11 26 1.6 3.2 0.00 0.00 0.00 100 1013.7
20260506205645 11 28 3.2 3.2 0.00 0.00 0.00 100 1013.7
20260506205545 11 33 3.2 3.2 0.00 0.00 0.00 100 1013.7
20260506205445 11 22 1.6 3.2 0.00 0.00 0.00 100 1013.7
20260506205344 11 25 1.6 3.2 0.00 0.00 0.00 100 1013.7
20260506205245 11 26 4.8 4.8 0.00 0.00 0.00 100 1013.7
20260506205213 11 26 4.8 4.8 0.00 0.00 0.00 100 1013.7
20260506205145 11 15 1.6 4.8 0.00 0.00 0.00 100 1013.7
20260506205045 11 27 4.8 4.8 0.00 0.00 0.00 100 1013.7
20260506204945 11 19 4.8 4.8 0.00 0.00 0.00 100 1013.7
20260506204845 11 360 4.8 4.8 0.00 0.00 0.00 100 1013.7
20260506204745 11 32 0.0 4.8 0.00 0.00 0.00 100 1013.7
20260506204711 11 32 0.0 4.8 0.00 0.00 0.00 100 1013.7
20260506204645 11 33 1.6 4.8 0.00 0.00 0.00 100 1013.7
20260506204545 11 32 1.6 4.8 0.00 0.00 0.00 100 1013.7
20260506204445 11 26 1.6 4.8 0.00 0.00 0.00 100 1013.7
20260506204345 11 31 1.6 1.6 0.00 0.00 0.00 100 1013.7
20260506204245 11 31 1.6 3.2 0.00 0.00 0.00 100 1013.7
20260506204213 11 31 1.6 3.2 0.00 0.00 0.00 100 1013.7
20260506204144 11 31 0.0 3.2 0.00 0.00 0.00 100 1013.6
20260506204044 11 31 0.0 1.6 0.00 0.00 0.00 100 1013.6
20260506203944 11 31 0.0 1.6 0.00 0.00 0.00 100 1013.6
20260506203844 11 31 0.0 1.6 0.00 0.00 0.00 100 1013.6
20260506203745 11 31 3.2 3.2 0.00 0.00 0.00 100 1013.6
20260506203711 11 31 3.2 3.2 0.00 0.00 0.00 100 1013.6
20260506203645 11 31 1.6 3.2 0.00 0.00 0.00 100 1013.6
20260506203545 11 28 0.0 3.2 0.00 0.00 0.00 100 1013.6
20260506203445 11 28 1.6 3.2 0.00 0.00 0.00 100 1013.6
20260506203344 11 31 1.6 3.2 0.00 0.00 0.00 100 1013.6
20260506203244 11 31 1.6 1.6 0.00 0.00 0.00 100 1013.6
20260506203212 11 31 1.6 1.6 0.00 0.00 0.00 100 1013.6
20260506203146 11 31 0.0 1.6 0.00 0.00 0.00 100 1013.6
20260506203046 11 31 0.0 1.6 0.00 0.00 0.00 100 1013.5
20260506202946 11 31 0.0 1.6 0.00 0.00 0.00 100 1013.5
20260506202846 11 31 1.6 1.6 0.00 0.00 0.00 100 1013.6
20260506202746 11 33 0.0 4.8 0.00 0.00 0.00 100 1013.6
20260506202711 11 33 0.0 4.8 0.00 0.00 0.00 100 1013.6
20260506202645 11 33 1.6 4.8 0.00 0.00 0.00 100 1013.5
20260506202545 11 33 1.6 4.8 0.00 0.00 0.00 100 1013.6
20260506202445 11 36 3.2 4.8 0.00 0.00 0.00 100 1013.6
20260506202345 11 36 4.8 4.8 0.00 0.00 0.00 100 1013.5
20260506202245 11 33 1.6 3.2 0.00 0.00 0.00 100 1013.5
20260506202213 11 33 1.6 3.2 0.00 0.00 0.00 100 1013.5
20260506202145 11 33 3.2 3.2 0.00 0.00 0.00 100 1013.5
20260506202046 11 33 0.0 3.2 0.00 0.00 0.00 100 1013.5
20260506201946 11 33 0.0 1.6 0.00 0.00 0.00 100 1013.5
20260506201846 11 33 0.0 1.6 0.00 0.00 0.00 100 1013.5
20260506201745 11 33 1.6 4.8 0.00 0.00 0.00 100 1013.4
20260506201713 11 33 1.6 4.8 0.00 0.00 0.00 100 1013.4
20260506201645 11 34 0.0 3.2 0.00 0.00 0.00 100 1013.5
20260506201544 11 34 1.6 3.2 0.00 0.00 0.00 100 1013.5
20260506201444 11 34 0.0 3.2 0.00 0.00 0.00 100 1013.4
20260506201344 11 34 3.2 3.2 0.00 0.00 0.00 100 1013.5
20260506201244 11 34 0.0 3.2 0.00 0.00 0.00 100 1013.5
20260506201212 11 34 0.0 3.2 0.00 0.00 0.00 100 1013.5
20260506201145 11 34 1.6 3.2 0.00 0.00 0.00 100 1013.5
20260506201045 11 32 1.6 3.2 0.00 0.00 0.00 100 1013.5
20260506200945 11 32 0.0 3.2 0.00 0.00 0.00 100 1013.5
20260506200845 11 32 0.0 0.0 0.00 0.00 0.00 100 1013.5
20260506200745 11 32 1.6 3.2 0.00 0.00 0.00 100 1013.5
20260506200713 11 32 1.6 3.2 0.00 0.00 0.00 100 1013.5
20260506200645 11 32 0.0 3.2 0.00 0.00 0.00 100 1013.4
20260506200545 11 32 1.6 3.2 0.00 0.00 0.00 100 1013.4
20260506200445 11 32 1.6 1.6 0.00 0.00 0.00 100 1013.5
20260506200347 11 32 1.6 1.6 0.00 0.00 0.00 100 1013.4
20260506200246 11 32 0.0 3.2 0.00 0.00 0.00 100 1013.5
20260506200212 11 32 0.0 3.2 0.00 0.00 0.00 100 1013.5
20260506200145 11 32 1.6 1.6 0.00 0.00 0.00 100 1013.4
20260506200045 11 32 0.0 1.6 0.00 0.00 0.00 100 1013.5
20260506195945 11 32 0.0 1.6 0.00 0.00 0.00 100 1013.4
20260506195845 11 32 0.0 1.6 0.00 0.00 0.00 100 1013.4
20260506195745 11 32 1.6 3.2 0.00 0.00 0.00 100 1013.4
20260506195711 11 32 1.6 3.2 0.00 0.00 0.00 100 1013.4
20260506195645 11 32 1.6 1.6 0.00 0.00 0.00 100 1013.4
20260506195545 11 32 0.0 1.6 0.00 0.00 0.00 100 1013.4
20260506195444 11 32 1.6 1.6 0.00 0.00 0.00 100 1013.4
20260506195346 11 32 0.0 0.0 0.00 0.00 0.00 100 1013.4
20260506195246 11 32 0.0 3.2 0.00 0.00 0.00 100 1013.4
20260506195212 11 32 0.0 3.2 0.00 0.00 0.00 100 1013.4
20260506195146 11 32 0.0 3.2 0.00 0.00 0.00 100 1013.4
20260506195045 11 32 1.6 3.2 0.00 0.00 0.00 100 1013.3
20260506194945 11 32 0.0 3.2 0.00 0.00 0.00 100 1013.3
20260506194845 11 32 0.0 1.6 0.00 0.00 0.00 100 1013.4
20260506194745 11 32 1.6 3.2 0.00 0.00 0.00 100 1013.3
20260506194713 11 32 1.6 3.2 0.00 0.00 0.00 100 1013.3
20260506194644 11 32 0.0 3.2 0.00 0.00 0.00 100 1013.3
20260506194544 11 32 0.0 3.2 0.00 0.00 0.00 100 1013.3
20260506194445 11 32 0.0 3.2 0.00 0.00 0.00 100 1013.3
20260506194345 11 32 1.6 3.2 0.00 0.00 0.00 100 1013.3
20260506194245 11 32 1.6 4.8 0.00 0.00 0.00 100 1013.3
20260506194213 11 32 1.6 4.8 0.00 0.00 0.00 100 1013.3
20260506194145 11 32 0.0 4.8 0.00 0.00 0.00 100 1013.2
20260506194045 11 32 1.6 4.8 0.00 0.00 0.00 100 1013.3
20260506193946 11 32 0.0 4.8 0.00 0.00 0.00 100 1013.2
20260506193846 11 31 0.0 0.0 0.00 0.00 0.00 100 1013.2
20260506193746 11 31 0.0 1.6 0.00 0.00 0.00 100 1013.2
20260506193712 11 31 0.0 1.6 0.00 0.00 0.00 100 1013.2
20260506193646 11 31 0.0 1.6 0.00 0.00 0.00 100 1013.2
20260506193546 11 31 1.6 1.6 0.00 0.00 0.00 100 1013.2
20260506193446 11 31 0.0 1.6 0.00 0.00 0.00 100 1013.2
20260506193346 11 31 0.0 1.6 0.00 0.00 0.00 100 1013.2